Time,TemperatureF,DewpointF,PressureIn,WindDirection,WindDirectionDegrees,WindSpeedMPH,WindSpeedGustMPH,Humidity,HourlyPrecipIn,Conditions,Clouds,dailyrainin,SolarRadiationWatts/m^2,SoftwareType,DateUTC
2013-04-29 00:00:00,49.6,44.6,29.83,SSW,212,0.0,0.0,83,0.00,,,0.00,0,Wunderground v.1.15,2013-04-29 05:00:00,
2013-04-29 00:01:00,49.6,44.6,29.83,SSW,212,0.0,0.0,83,0.00,,,0.00,0,Wunderground v.1.15,2013-04-29 05:01:00,
2013-04-29 00:05:00,49.6,44.6,29.83,SSW,212,0.0,0.0,83,0.00,,,0.00,0,Wunderground v.1.15,2013-04-29 05:05:00,
2013-04-29 00:06:00,49.6,44.6,29.83,SSW,212,0.0,0.0,83,0.00,,,0.00,0,Wunderground v.1.15,2013-04-29 05:06:00,
2013-04-29 00:07:00,49.5,44.6,29.83,SSW,212,0.0,0.0,83,0.00,,,0.00,0,Wunderground v.1.15,2013-04-29 05:07:00,
2013-04-29 00:10:00,49.4,44.5,29.82,SSW,212,0.0,0.0,83,0.00,,,0.00,0,Wunderground v.1.15,2013-04-29 05:10:00,
2013-04-29 00:11:00,49.4,44.5,29.82,SSW,212,0.0,0.0,83,0.00,,,0.00,0,Wunderground v.1.15,2013-04-29 05:11:00,
2013-04-29 00:12:00,49.4,44.5,29.82,SSW,212,0.0,0.0,83,0.00,,,0.00,0,Wunderground v.1.15,2013-04-29 05:12:00,
2013-04-29 00:15:00,49.3,44.4,29.83,SSW,212,0.0,0.0,83,0.00,,,0.00,0,Wunderground v.1.15,2013-04-29 05:15:00,
2013-04-29 00:17:00,49.3,44.4,29.82,SSW,212,0.0,0.0,83,0.00,,,0.00,0,Wunderground v.1.15,2013-04-29 05:17:00,
2013-04-29 00:18:00,49.3,44.4,29.82,SSW,212,0.0,0.0,83,0.00,,,0.00,0,Wunderground v.1.15,2013-04-29 05:18:00,
2013-04-29 00:19:00,49.4,44.5,29.82,SSW,212,0.0,0.0,83,0.00,,,0.00,0,Wunderground v.1.15,2013-04-29 05:19:00,
2013-04-29 00:21:00,49.4,44.5,29.83,SSW,212,0.0,0.0,83,0.00,,,0.00,0,Wunderground v.1.15,2013-04-29 05:21:00,
2013-04-29 00:23:00,49.6,44.6,29.83,SSW,212,0.0,0.0,83,0.00,,,0.00,0,Wunderground v.1.15,2013-04-29 05:23:00,
2013-04-29 00:26:00,50.0,44.7,29.83,SSW,212,0.0,0.0,82,0.00,,,0.00,0,Wunderground v.1.15,2013-04-29 05:26:00,
2013-04-29 00:27:00,50.1,44.8,29.83,SSW,212,0.0,0.0,82,0.00,,,0.00,0,Wunderground v.1.15,2013-04-29 05:27:00,
2013-04-29 00:28:00,50.5,45.2,29.83,SSW,212,0.0,2.0,82,0.00,,,0.00,0,Wunderground v.1.15,2013-04-29 05:28:00,
2013-04-29 00:30:00,50.8,45.2,29.83,SSW,212,0.0,0.0,81,0.00,,,0.00,0,Wunderground v.1.15,2013-04-29 05:30:00,
2013-04-29 00:33:00,50.7,44.8,29.82,SSW,194,0.0,2.0,80,0.00,,,0.00,0,Wunderground v.1.15,2013-04-29 05:33:00,
2013-04-29 00:35:00,50.5,44.9,29.82,SSW,194,1.0,2.0,81,0.00,,,0.00,0,Wunderground v.1.15,2013-04-29 05:35:00,
2013-04-29 00:38:00,50.1,44.5,29.82,SSW,194,1.0,2.0,81,0.00,,,0.00,0,Wunderground v.1.15,2013-04-29 05:38:00,
2013-04-29 00:39:00,50.1,44.5,29.82,SSW,194,1.0,2.0,81,0.00,,,0.00,0,Wunderground v.1.15,2013-04-29 05:39:00,
2013-04-29 00:40:00,50.0,44.7,29.83,SSW,194,1.0,1.0,82,0.00,,,0.00,0,Wunderground v.1.15,2013-04-29 05:40:00,
2013-04-29 00:41:00,49.9,44.6,29.83,SSW,194,1.0,1.0,82,0.00,,,0.00,0,Wunderground v.1.15,2013-04-29 05:41:00,
2013-04-29 00:42:00,49.9,44.6,29.83,SSW,194,0.0,1.0,82,0.00,,,0.00,0,Wunderground v.1.15,2013-04-29 05:42:00,
2013-04-29 00:44:00,49.9,44.6,29.83,SSW,194,0.0,1.0,82,0.00,,,0.00,0,Wunderground v.1.15,2013-04-29 05:44:00,
2013-04-29 00:45:00,49.9,44.6,29.83,SSW,194,0.0,1.0,82,0.00,,,0.00,0,Wunderground v.1.15,2013-04-29 05:45:00,
2013-04-29 00:48:00,50.5,44.9,29.83,SSW,194,0.0,1.0,81,0.00,,,0.00,0,Wunderground v.1.15,2013-04-29 05:48:00,
2013-04-29 00:50:00,50.9,45.3,29.82,SSW,194,0.0,0.0,81,0.00,,,0.00,0,Wunderground v.1.15,2013-04-29 05:50:00,
2013-04-29 00:51:00,51.0,45.0,29.83,SSW,194,0.0,0.0,80,0.00,,,0.00,0,Wunderground v.1.15,2013-04-29 05:51:00,
2013-04-29 00:52:00,51.2,45.2,29.82,SSW,194,0.0,0.0,80,0.00,,,0.00,0,Wunderground v.1.15,2013-04-29 05:52:00,
2013-04-29 00:55:00,51.2,44.9,29.82,SSW,194,0.0,0.0,79,0.00,,,0.00,0,Wunderground v.1.15,2013-04-29 05:55:00,
2013-04-29 00:57:00,50.9,44.9,29.83,SSW,194,0.0,0.0,80,0.00,,,0.00,0,Wunderground v.1.15,2013-04-29 05:57:00,
2013-04-29 01:00:00,50.6,45.0,29.82,SSW,194,0.0,0.0,81,0.00,,,0.00,0,Wunderground v.1.15,2013-04-29 06:00:00,
2013-04-29 01:02:00,50.5,44.9,29.82,SSW,194,0.0,0.0,81,0.00,,,0.00,0,Wunderground v.1.15,2013-04-29 06:02:00,
2013-04-29 01:03:00,50.4,45.1,29.82,SSW,194,0.0,0.0,82,0.00,,,0.00,0,Wunderground v.1.15,2013-04-29 06:03:00,
2013-04-29 01:06:00,50.4,45.1,29.82,SSW,194,0.0,0.0,82,0.00,,,0.00,0,Wunderground v.1.15,2013-04-29 06:06:00,
2013-04-29 01:07:00,50.4,45.1,29.82,SSW,194,0.0,0.0,82,0.00,,,0.00,0,Wunderground v.1.15,2013-04-29 06:07:00,
2013-04-29 01:09:00,50.3,45.0,29.82,SSW,194,0.0,0.0,82,0.00,,,0.00,0,Wunderground v.1.15,2013-04-29 06:09:00,
2013-04-29 01:11:00,50.3,45.0,29.82,SSW,194,0.0,0.0,82,0.00,,,0.00,0,Wunderground v.1.15,2013-04-29 06:11:00,
2013-04-29 01:13:00,50.2,44.9,29.82,SSW,194,0.0,0.0,82,0.00,,,0.00,0,Wunderground v.1.15,2013-04-29 06:13:00,
2013-04-29 01:14:00,50.1,44.8,29.81,SSW,194,0.0,0.0,82,0.00,,,0.00,0,Wunderground v.1.15,2013-04-29 06:14:00,
2013-04-29 01:17:00,50.0,44.7,29.81,SSW,194,0.0,1.0,82,0.00,,,0.00,0,Wunderground v.1.15,2013-04-29 06:17:00,
2013-04-29 01:18:00,50.0,44.7,29.81,SSW,194,0.0,1.0,82,0.00,,,0.00,0,Wunderground v.1.15,2013-04-29 06:18:00,
2013-04-29 01:20:00,50.1,44.8,29.82,SSW,194,0.0,1.0,82,0.00,,,0.00,0,Wunderground v.1.15,2013-04-29 06:20:00,
2013-04-29 01:22:00,50.2,44.9,29.82,SSW,194,1.0,2.0,82,0.00,,,0.00,0,Wunderground v.1.15,2013-04-29 06:22:00,
2013-04-29 01:25:00,51.1,45.8,29.82,SSW,194,1.0,3.0,82,0.00,,,0.00,0,Wunderground v.1.15,2013-04-29 06:25:00,
2013-04-29 01:26:00,51.3,45.7,29.82,SSW,194,1.0,3.0,81,0.00,,,0.00,0,Wunderground v.1.15,2013-04-29 06:26:00,
2013-04-29 01:27:00,51.5,45.9,29.82,SSW,194,1.0,3.0,81,0.00,,,0.00,0,Wunderground v.1.15,2013-04-29 06:27:00,
2013-04-29 01:30:00,52.2,45.9,29.82,SSW,194,1.0,1.0,79,0.00,,,0.00,0,Wunderground v.1.15,2013-04-29 06:30:00,
2013-04-29 01:31:00,52.5,45.8,29.82,SSW,194,1.0,1.0,78,0.00,,,0.00,0,Wunderground v.1.15,2013-04-29 06:31:00,
2013-04-29 01:32:00,52.8,46.1,29.82,SSW,194,1.0,1.0,78,0.00,,,0.00,0,Wunderground v.1.15,2013-04-29 06:32:00,
2013-04-29 01:34:00,53.2,45.8,29.82,SSW,194,0.0,1.0,76,0.00,,,0.00,0,Wunderground v.1.15,2013-04-29 06:34:00,
2013-04-29 01:36:00,53.6,46.2,29.82,SSW,194,0.0,1.0,76,0.00,,,0.00,0,Wunderground v.1.15,2013-04-29 06:36:00,
2013-04-29 01:37:00,53.7,46.0,29.82,SSW,194,0.0,1.0,75,0.00,,,0.00,0,Wunderground v.1.15,2013-04-29 06:37:00,
2013-04-29 01:38:00,53.9,46.2,29.82,SSW,194,0.0,1.0,75,0.00,,,0.00,0,Wunderground v.1.15,2013-04-29 06:38:00,
2013-04-29 01:40:00,54.1,46.0,29.82,SSW,194,0.0,0.0,74,0.00,,,0.00,0,Wunderground v.1.15,2013-04-29 06:40:00,
2013-04-29 01:42:00,53.9,45.8,29.82,SSW,194,0.0,0.0,74,0.00,,,0.00,0,Wunderground v.1.15,2013-04-29 06:42:00,
2013-04-29 01:44:00,53.7,45.6,29.82,SSW,194,0.0,0.0,74,0.00,,,0.00,0,Wunderground v.1.15,2013-04-29 06:44:00,
2013-04-29 01:46:00,53.4,45.7,29.82,SSW,194,0.0,0.0,75,0.00,,,0.00,0,Wunderground v.1.15,2013-04-29 06:46:00,
2013-04-29 01:47:00,53.3,45.6,29.82,SSW,194,0.0,0.0,75,0.00,,,0.00,0,Wunderground v.1.15,2013-04-29 06:47:00,
2013-04-29 01:48:00,53.2,45.5,29.82,SSW,194,0.0,0.0,75,0.00,,,0.00,0,Wunderground v.1.15,2013-04-29 06:48:00,
2013-04-29 01:50:00,53.0,45.6,29.82,SSW,194,0.0,0.0,76,0.00,,,0.00,0,Wunderground v.1.15,2013-04-29 06:50:00,
2013-04-29 01:51:00,53.0,45.6,29.82,SSW,194,0.0,0.0,76,0.00,,,0.00,0,Wunderground v.1.15,2013-04-29 06:51:00,
2013-04-29 01:52:00,52.9,45.5,29.82,SSW,194,0.0,0.0,76,0.00,,,0.00,0,Wunderground v.1.15,2013-04-29 06:52:00,
2013-04-29 01:56:00,52.6,45.9,29.83,SSW,194,0.0,0.0,78,0.00,,,0.00,0,Wunderground v.1.15,2013-04-29 06:56:00,
2013-04-29 01:57:00,52.4,45.7,29.83,SSW,194,0.0,0.0,78,0.00,,,0.00,0,Wunderground v.1.15,2013-04-29 06:57:00,
2013-04-29 01:58:00,52.3,46.0,29.82,SSW,194,0.0,0.0,79,0.00,,,0.00,0,Wunderground v.1.15,2013-04-29 06:58:00,
2013-04-29 01:59:00,52.2,45.9,29.83,SSW,194,0.0,0.0,79,0.00,,,0.00,0,Wunderground v.1.15,2013-04-29 06:59:00,
2013-04-29 02:01:00,52.1,45.8,29.83,SSW,194,0.0,0.0,79,0.00,,,0.00,0,Wunderground v.1.15,2013-04-29 07:01:00,
2013-04-29 02:02:00,51.9,45.6,29.83,SSW,194,0.0,0.0,79,0.00,,,0.00,0,Wunderground v.1.15,2013-04-29 07:02:00,
2013-04-29 02:05:00,51.6,45.6,29.83,SSW,194,0.0,0.0,80,0.00,,,0.00,0,Wunderground v.1.15,2013-04-29 07:05:00,
2013-04-29 02:09:00,51.6,45.6,29.83,SSW,194,0.0,1.0,80,0.00,,,0.00,0,Wunderground v.1.15,2013-04-29 07:09:00,
2013-04-29 02:10:00,51.6,45.6,29.83,SSW,194,0.0,0.0,80,0.00,,,0.00,0,Wunderground v.1.15,2013-04-29 07:10:00,
2013-04-29 02:12:00,51.6,45.6,29.83,SSW,194,0.0,1.0,80,0.00,,,0.00,0,Wunderground v.1.15,2013-04-29 07:12:00,
2013-04-29 02:13:00,51.6,45.6,29.83,SSW,194,0.0,1.0,80,0.00,,,0.00,0,Wunderground v.1.15,2013-04-29 07:13:00,
2013-04-29 02:16:00,52.0,46.0,29.83,SSW,194,0.0,1.0,80,0.00,,,0.00,0,Wunderground v.1.15,2013-04-29 07:16:00,
2013-04-29 02:17:00,52.1,45.8,29.83,SSW,194,0.0,1.0,79,0.00,,,0.00,0,Wunderground v.1.15,2013-04-29 07:17:00,
2013-04-29 02:19:00,52.1,45.8,29.83,SSW,194,0.0,1.0,79,0.00,,,0.00,0,Wunderground v.1.15,2013-04-29 07:19:00,
2013-04-29 02:20:00,52.1,45.8,29.83,SSW,194,0.0,0.0,79,0.00,,,0.00,0,Wunderground v.1.15,2013-04-29 07:20:00,
2013-04-29 02:22:00,52.2,45.9,29.83,SSW,194,0.0,0.0,79,0.00,,,0.00,0,Wunderground v.1.15,2013-04-29 07:22:00,
2013-04-29 02:26:00,51.5,45.9,29.83,SSW,194,0.0,0.0,81,0.00,,,0.00,0,Wunderground v.1.15,2013-04-29 07:26:00,
2013-04-29 02:27:00,51.4,45.8,29.83,SSW,194,0.0,0.0,81,0.00,,,0.00,0,Wunderground v.1.15,2013-04-29 07:27:00,
2013-04-29 02:29:00,51.4,45.8,29.83,SSW,194,0.0,0.0,81,0.00,,,0.00,0,Wunderground v.1.15,2013-04-29 07:29:00,
2013-04-29 02:31:00,51.4,45.8,29.83,SSW,194,0.0,0.0,81,0.00,,,0.00,0,Wunderground v.1.15,2013-04-29 07:31:00,
2013-04-29 02:34:00,51.4,46.1,29.83,SSW,194,0.0,0.0,82,0.00,,,0.00,0,Wunderground v.1.15,2013-04-29 07:34:00,
2013-04-29 02:36:00,51.5,46.2,29.83,SSW,194,0.0,0.0,82,0.00,,,0.00,0,Wunderground v.1.15,2013-04-29 07:36:00,
2013-04-29 02:37:00,51.6,46.3,29.83,SSW,194,0.0,0.0,82,0.00,,,0.00,0,Wunderground v.1.15,2013-04-29 07:37:00,
2013-04-29 02:39:00,51.7,46.4,29.83,SSW,194,0.0,0.0,82,0.00,,,0.00,0,Wunderground v.1.15,2013-04-29 07:39:00,
2013-04-29 02:43:00,51.6,46.3,29.83,SSW,194,0.0,0.0,82,0.00,,,0.00,0,Wunderground v.1.15,2013-04-29 07:43:00,
2013-04-29 02:44:00,51.6,46.3,29.84,SSW,194,0.0,0.0,82,0.00,,,0.00,0,Wunderground v.1.15,2013-04-29 07:44:00,
2013-04-29 02:45:00,51.7,46.4,29.83,SSW,194,0.0,0.0,82,0.00,,,0.00,0,Wunderground v.1.15,2013-04-29 07:45:00,
2013-04-29 02:46:00,51.7,46.4,29.84,SSW,194,0.0,0.0,82,0.00,,,0.00,0,Wunderground v.1.15,2013-04-29 07:46:00,
2013-04-29 02:48:00,51.7,46.4,29.84,SSW,194,0.0,0.0,82,0.00,,,0.00,0,Wunderground v.1.15,2013-04-29 07:48:00,
2013-04-29 02:50:00,51.7,46.4,29.83,SSW,194,0.0,0.0,82,0.00,,,0.00,0,Wunderground v.1.15,2013-04-29 07:50:00,
2013-04-29 02:53:00,51.7,46.4,29.83,SSW,194,0.0,0.0,82,0.00,,,0.00,0,Wunderground v.1.15,2013-04-29 07:53:00,
2013-04-29 02:54:00,51.7,46.4,29.83,SSW,194,0.0,0.0,82,0.00,,,0.00,0,Wunderground v.1.15,2013-04-29 07:54:00,
2013-04-29 02:55:00,51.7,46.4,29.83,SSW,194,0.0,0.0,82,0.00,,,0.00,0,Wunderground v.1.15,2013-04-29 07:55:00,
2013-04-29 02:59:00,51.8,46.5,29.83,SSW,194,0.0,0.0,82,0.00,,,0.00,0,Wunderground v.1.15,2013-04-29 07:59:00,
2013-04-29 03:00:00,51.8,46.5,29.83,SSW,194,0.0,0.0,82,0.00,,,0.00,0,Wunderground v.1.15,2013-04-29 08:00:00,
2013-04-29 03:01:00,51.9,46.6,29.83,SSW,194,0.0,0.0,82,0.00,,,0.00,0,Wunderground v.1.15,2013-04-29 08:01:00,
2013-04-29 03:02:00,51.9,46.6,29.84,SSW,194,0.0,0.0,82,0.00,,,0.00,0,Wunderground v.1.15,2013-04-29 08:02:00,
2013-04-29 03:06:00,52.2,46.5,29.83,SSW,194,0.0,0.0,81,0.00,,,0.00,0,Wunderground v.1.15,2013-04-29 08:06:00,
2013-04-29 03:08:00,52.3,46.6,29.83,SSW,194,0.0,0.0,81,0.00,,,0.00,0,Wunderground v.1.15,2013-04-29 08:08:00,
2013-04-29 03:11:00,52.2,46.5,29.83,SSW,194,0.0,0.0,81,0.00,,,0.00,0,Wunderground v.1.15,2013-04-29 08:11:00,
2013-04-29 03:12:00,52.2,46.5,29.83,SSW,194,0.0,0.0,81,0.00,,,0.00,0,Wunderground v.1.15,2013-04-29 08:12:00,
2013-04-29 03:13:00,52.2,46.5,29.83,SSW,194,0.0,0.0,81,0.00,,,0.00,0,Wunderground v.1.15,2013-04-29 08:13:00,
2013-04-29 03:15:00,52.2,46.5,29.83,SSW,194,0.0,0.0,81,0.00,,,0.00,0,Wunderground v.1.15,2013-04-29 08:15:00,
2013-04-29 03:18:00,52.1,46.4,29.83,SSW,194,0.0,0.0,81,0.00,,,0.00,0,Wunderground v.1.15,2013-04-29 08:18:00,
2013-04-29 03:19:00,52.1,46.4,29.83,SSW,194,0.0,0.0,81,0.00,,,0.00,0,Wunderground v.1.15,2013-04-29 08:19:00,
2013-04-29 03:22:00,52.0,46.3,29.83,SSW,194,0.0,0.0,81,0.00,,,0.00,0,Wunderground v.1.15,2013-04-29 08:22:00,
2013-04-29 03:23:00,52.0,46.3,29.83,SSW,194,0.0,0.0,81,0.00,,,0.00,0,Wunderground v.1.15,2013-04-29 08:23:00,
2013-04-29 03:24:00,52.0,46.3,29.83,SSW,194,0.0,0.0,81,0.00,,,0.00,0,Wunderground v.1.15,2013-04-29 08:24:00,
2013-04-29 03:26:00,52.0,46.3,29.83,SSW,194,0.0,0.0,81,0.00,,,0.00,0,Wunderground v.1.15,2013-04-29 08:26:00,
2013-04-29 03:27:00,52.0,46.3,29.83,SSW,194,0.0,0.0,81,0.00,,,0.00,0,Wunderground v.1.15,2013-04-29 08:27:00,
2013-04-29 03:29:00,51.9,46.3,29.83,SSW,194,0.0,0.0,81,0.00,,,0.00,0,Wunderground v.1.15,2013-04-29 08:29:00,
2013-04-29 03:30:00,51.9,46.3,29.83,SSW,194,0.0,0.0,81,0.00,,,0.00,0,Wunderground v.1.15,2013-04-29 08:30:00,
2013-04-29 03:34:00,51.9,46.3,29.83,SSW,194,0.0,0.0,81,0.00,,,0.00,0,Wunderground v.1.15,2013-04-29 08:34:00,
2013-04-29 03:35:00,51.9,46.3,29.84,SSW,194,0.0,0.0,81,0.00,,,0.00,0,Wunderground v.1.15,2013-04-29 08:35:00,
2013-04-29 03:37:00,51.9,46.3,29.84,SSW,194,0.0,1.0,81,0.00,,,0.00,0,Wunderground v.1.15,2013-04-29 08:37:00,
2013-04-29 03:39:00,52.1,46.4,29.84,SSW,194,0.0,1.0,81,0.00,,,0.00,0,Wunderground v.1.15,2013-04-29 08:39:00,
2013-04-29 03:40:00,52.4,46.7,29.84,SSW,194,0.0,0.0,81,0.00,,,0.00,0,Wunderground v.1.15,2013-04-29 08:40:00,
2013-04-29 03:42:00,52.7,46.7,29.84,SSW,194,0.0,0.0,80,0.00,,,0.00,0,Wunderground v.1.15,2013-04-29 08:42:00,
2013-04-29 03:43:00,52.9,46.9,29.84,SSW,194,0.0,0.0,80,0.00,,,0.00,0,Wunderground v.1.15,2013-04-29 08:43:00,
2013-04-29 03:45:00,53.0,46.7,29.85,SSW,194,0.0,0.0,79,0.00,,,0.00,0,Wunderground v.1.15,2013-04-29 08:45:00,
2013-04-29 03:49:00,53.5,47.1,29.85,SSW,194,0.0,0.0,79,0.00,,,0.00,0,Wunderground v.1.15,2013-04-29 08:49:00,
2013-04-29 03:50:00,53.5,46.8,29.85,SSW,194,0.0,0.0,78,0.00,,,0.00,0,Wunderground v.1.15,2013-04-29 08:50:00,
2013-04-29 03:51:00,53.5,47.1,29.85,SSW,194,0.0,0.0,79,0.00,,,0.00,0,Wunderground v.1.15,2013-04-29 08:51:00,
2013-04-29 03:52:00,53.5,47.1,29.85,SSW,194,0.0,0.0,79,0.00,,,0.00,0,Wunderground v.1.15,2013-04-29 08:52:00,
2013-04-29 03:53:00,53.3,47.0,29.85,SSW,194,0.0,0.0,79,0.00,,,0.00,0,Wunderground v.1.15,2013-04-29 08:53:00,
2013-04-29 03:54:00,53.2,46.9,29.85,SSW,194,0.0,0.0,79,0.00,,,0.00,0,Wunderground v.1.15,2013-04-29 08:54:00,
2013-04-29 03:58:00,53.4,47.0,29.85,SSW,194,0.0,0.0,79,0.00,,,0.00,0,Wunderground v.1.15,2013-04-29 08:58:00,
2013-04-29 04:01:00,53.3,47.3,29.85,SSW,194,0.0,0.0,80,0.00,,,0.00,0,Wunderground v.1.15,2013-04-29 09:01:00,
2013-04-29 04:02:00,53.3,47.3,29.85,SSW,194,0.0,0.0,80,0.00,,,0.00,0,Wunderground v.1.15,2013-04-29 09:02:00,
2013-04-29 04:03:00,53.3,47.3,29.85,SSW,194,0.0,1.0,80,0.00,,,0.00,0,Wunderground v.1.15,2013-04-29 09:03:00,
2013-04-29 04:04:00,53.2,47.2,29.84,SSW,194,0.0,1.0,80,0.00,,,0.00,0,Wunderground v.1.15,2013-04-29 09:04:00,
2013-04-29 04:06:00,53.1,47.1,29.84,SSW,194,0.0,2.0,80,0.00,,,0.00,0,Wunderground v.1.15,2013-04-29 09:06:00,
2013-04-29 04:07:00,53.0,47.0,29.84,SSW,194,0.0,3.0,80,0.00,,,0.00,0,Wunderground v.1.15,2013-04-29 09:07:00,
2013-04-29 04:10:00,53.4,47.4,29.84,SSW,194,0.0,0.0,80,0.00,,,0.00,0,Wunderground v.1.15,2013-04-29 09:10:00,
2013-04-29 04:11:00,53.6,47.6,29.85,SSW,194,0.0,0.0,80,0.00,,,0.00,0,Wunderground v.1.15,2013-04-29 09:11:00,
2013-04-29 04:12:00,53.7,47.3,29.85,SSW,194,0.0,1.0,79,0.00,,,0.00,0,Wunderground v.1.15,2013-04-29 09:12:00,
2013-04-29 04:17:00,54.2,47.8,29.85,SSW,194,0.0,1.0,79,0.00,,,0.00,0,Wunderground v.1.15,2013-04-29 09:17:00,
2013-04-29 04:19:00,54.4,47.7,29.85,SSW,194,0.0,1.0,78,0.00,,,0.00,0,Wunderground v.1.15,2013-04-29 09:19:00,
2013-04-29 04:22:00,54.7,47.6,29.85,SSW,194,0.0,0.0,77,0.00,,,0.00,0,Wunderground v.1.15,2013-04-29 09:22:00,
2013-04-29 04:24:00,54.8,47.7,29.84,SSW,194,0.0,0.0,77,0.00,,,0.00,0,Wunderground v.1.15,2013-04-29 09:24:00,
2013-04-29 04:25:00,54.8,48.1,29.84,SSW,194,0.0,0.0,78,0.00,,,0.00,0,Wunderground v.1.15,2013-04-29 09:25:00,
2013-04-29 04:26:00,54.8,48.1,29.85,SSW,194,0.0,0.0,78,0.00,,,0.00,0,Wunderground v.1.15,2013-04-29 09:26:00,
2013-04-29 04:28:00,54.8,48.1,29.84,SSW,194,0.0,0.0,78,0.00,,,0.00,0,Wunderground v.1.15,2013-04-29 09:28:00,
2013-04-29 04:30:00,54.9,48.2,29.84,SSW,194,0.0,0.0,78,0.00,,,0.00,0,Wunderground v.1.15,2013-04-29 09:30:00,
2013-04-29 04:32:00,55.0,48.3,29.84,SSW,194,0.0,1.0,78,0.00,,,0.00,0,Wunderground v.1.15,2013-04-29 09:32:00,
2013-04-29 04:34:00,55.0,48.3,29.84,SSW,194,0.0,1.0,78,0.00,,,0.00,0,Wunderground v.1.15,2013-04-29 09:34:00,
2013-04-29 04:35:00,55.0,48.3,29.84,SSW,194,0.0,1.0,78,0.00,,,0.00,0,Wunderground v.1.15,2013-04-29 09:35:00,
2013-04-29 04:36:00,55.0,48.3,29.85,SSW,194,0.0,1.0,78,0.00,,,0.00,0,Wunderground v.1.15,2013-04-29 09:36:00,
2013-04-29 04:39:00,55.2,48.5,29.84,SSW,194,0.0,1.0,78,0.00,,,0.00,0,Wunderground v.1.15,2013-04-29 09:39:00,
2013-04-29 04:40:00,55.3,48.6,29.84,SSW,194,0.0,0.0,78,0.00,,,0.00,0,Wunderground v.1.15,2013-04-29 09:40:00,
2013-04-29 04:42:00,55.5,48.8,29.84,SSW,194,0.0,0.0,78,0.00,,,0.00,0,Wunderground v.1.15,2013-04-29 09:42:00,
2013-04-29 04:43:00,55.6,48.8,29.85,SSW,194,0.0,0.0,78,0.00,,,0.00,0,Wunderground v.1.15,2013-04-29 09:43:00,
2013-04-29 04:44:00,55.6,48.5,29.84,SSW,194,0.0,0.0,77,0.00,,,0.00,0,Wunderground v.1.15,2013-04-29 09:44:00,
2013-04-29 04:45:00,55.7,48.6,29.84,SSW,194,0.0,0.0,77,0.00,,,0.00,0,Wunderground v.1.15,2013-04-29 09:45:00,
2013-04-29 04:49:00,56.0,48.9,29.85,SSW,194,0.0,0.0,77,0.00,,,0.00,0,Wunderground v.1.15,2013-04-29 09:49:00,
2013-04-29 04:50:00,56.0,48.9,29.84,SSW,194,0.0,0.0,77,0.00,,,0.00,0,Wunderground v.1.15,2013-04-29 09:50:00,
2013-04-29 04:51:00,56.0,48.9,29.84,SSW,194,0.0,0.0,77,0.00,,,0.00,0,Wunderground v.1.15,2013-04-29 09:51:00,
2013-04-29 04:53:00,56.0,48.9,29.84,SSW,194,0.0,0.0,77,0.00,,,0.00,0,Wunderground v.1.15,2013-04-29 09:53:00,
2013-04-29 04:55:00,55.9,48.8,29.84,SSW,194,0.0,0.0,77,0.00,,,0.00,0,Wunderground v.1.15,2013-04-29 09:55:00,
2013-04-29 04:58:00,55.8,49.0,29.85,SSW,194,0.0,1.0,78,0.00,,,0.00,0,Wunderground v.1.15,2013-04-29 09:58:00,
2013-04-29 04:59:00,55.8,49.0,29.85,SSW,194,0.0,1.0,78,0.00,,,0.00,0,Wunderground v.1.15,2013-04-29 09:59:00,
2013-04-29 05:00:00,55.7,48.9,29.85,SSW,194,0.0,0.0,78,0.00,,,0.00,0,Wunderground v.1.15,2013-04-29 10:00:00,
2013-04-29 05:02:00,55.9,49.1,29.85,SSW,194,0.0,0.0,78,0.00,,,0.00,0,Wunderground v.1.15,2013-04-29 10:02:00,
2013-04-29 05:03:00,56.1,49.0,29.85,SSW,194,0.0,0.0,77,0.00,,,0.00,0,Wunderground v.1.15,2013-04-29 10:03:00,
2013-04-29 05:04:00,56.2,49.1,29.85,SSW,194,0.0,0.0,77,0.00,,,0.00,0,Wunderground v.1.15,2013-04-29 10:04:00,
2013-04-29 05:05:00,56.2,49.1,29.85,SSW,194,0.0,0.0,77,0.00,,,0.00,0,Wunderground v.1.15,2013-04-29 10:05:00,
2013-04-29 05:09:00,56.1,49.3,29.85,SSW,194,0.0,0.0,78,0.00,,,0.00,0,Wunderground v.1.15,2013-04-29 10:09:00,
2013-04-29 05:10:00,56.0,49.2,29.85,SSW,194,0.0,0.0,78,0.00,,,0.00,0,Wunderground v.1.15,2013-04-29 10:10:00,
2013-04-29 05:14:00,56.0,49.2,29.85,SSW,194,0.0,0.0,78,0.00,,,0.00,0,Wunderground v.1.15,2013-04-29 10:14:00,
2013-04-29 05:16:00,56.0,49.2,29.85,SSW,194,0.0,0.0,78,0.00,,,0.00,0,Wunderground v.1.15,2013-04-29 10:16:00,
2013-04-29 05:17:00,55.9,49.1,29.85,SSW,194,0.0,0.0,78,0.00,,,0.00,0,Wunderground v.1.15,2013-04-29 10:17:00,
2013-04-29 05:21:00,55.7,49.3,29.85,SSW,194,0.0,0.0,79,0.00,,,0.00,0,Wunderground v.1.15,2013-04-29 10:21:00,
2013-04-29 05:22:00,55.7,49.3,29.85,SSW,194,0.0,0.0,79,0.00,,,0.00,0,Wunderground v.1.15,2013-04-29 10:22:00,
2013-04-29 05:24:00,55.7,49.3,29.84,SSW,194,0.0,0.0,79,0.00,,,0.00,0,Wunderground v.1.15,2013-04-29 10:24:00,
2013-04-29 05:25:00,55.7,49.3,29.84,SSW,194,0.0,0.0,79,0.00,,,0.00,0,Wunderground v.1.15,2013-04-29 10:25:00,
2013-04-29 05:26:00,55.7,49.3,29.84,SSW,194,0.0,0.0,79,0.00,,,0.00,0,Wunderground v.1.15,2013-04-29 10:26:00,
2013-04-29 05:27:00,55.6,49.2,29.84,SSW,194,0.0,0.0,79,0.00,,,0.00,0,Wunderground v.1.15,2013-04-29 10:27:00,
2013-04-29 05:29:00,55.5,49.1,29.84,SSW,194,0.0,0.0,79,0.00,,,0.00,0,Wunderground v.1.15,2013-04-29 10:29:00,
2013-04-29 05:30:00,55.5,49.1,29.84,SSW,194,0.0,0.0,79,0.00,,,0.00,0,Wunderground v.1.15,2013-04-29 10:30:00,
2013-04-29 05:31:00,55.4,49.0,29.84,SSW,194,0.0,0.0,79,0.00,,,0.00,0,Wunderground v.1.15,2013-04-29 10:31:00,
2013-04-29 05:32:00,55.3,48.9,29.84,SSW,194,0.0,0.0,79,0.00,,,0.00,0,Wunderground v.1.15,2013-04-29 10:32:00,
2013-04-29 05:36:00,55.3,49.2,29.85,SSW,194,0.0,0.0,80,0.00,,,0.00,0,Wunderground v.1.15,2013-04-29 10:36:00,
2013-04-29 05:39:00,55.3,49.2,29.84,SSW,194,0.0,0.0,80,0.00,,,0.00,0,Wunderground v.1.15,2013-04-29 10:39:00,
2013-04-29 05:40:00,55.3,49.2,29.84,SSW,194,0.0,0.0,80,0.00,,,0.00,0,Wunderground v.1.15,2013-04-29 10:40:00,
2013-04-29 05:43:00,55.5,49.4,29.84,SSW,194,0.0,0.0,80,0.00,,,0.00,0,Wunderground v.1.15,2013-04-29 10:43:00,
2013-04-29 05:45:00,55.6,49.5,29.84,SSW,194,0.0,0.0,80,0.00,,,0.00,0,Wunderground v.1.15,2013-04-29 10:45:00,
2013-04-29 05:46:00,55.5,49.4,29.84,SSW,194,0.0,0.0,80,0.00,,,0.00,0,Wunderground v.1.15,2013-04-29 10:46:00,
2013-04-29 05:48:00,55.5,49.4,29.84,SSW,194,0.0,0.0,80,0.00,,,0.00,0,Wunderground v.1.15,2013-04-29 10:48:00,
2013-04-29 05:49:00,55.5,49.4,29.84,SSW,194,0.0,0.0,80,0.00,,,0.00,0,Wunderground v.1.15,2013-04-29 10:49:00,
2013-04-29 05:52:00,55.4,49.3,29.84,SSW,194,0.0,0.0,80,0.00,,,0.00,0,Wunderground v.1.15,2013-04-29 10:52:00,
2013-04-29 05:53:00,55.4,49.3,29.84,SSW,194,0.0,0.0,80,0.00,,,0.00,0,Wunderground v.1.15,2013-04-29 10:53:00,
2013-04-29 05:54:00,55.5,49.4,29.84,SSW,194,0.0,0.0,80,0.00,,,0.00,0,Wunderground v.1.15,2013-04-29 10:54:00,
2013-04-29 05:56:00,55.5,49.4,29.84,SSW,194,0.0,0.0,80,0.00,,,0.00,0,Wunderground v.1.15,2013-04-29 10:56:00,
2013-04-29 05:57:00,55.5,49.4,29.84,SSW,194,0.0,0.0,80,0.00,,,0.00,0,Wunderground v.1.15,2013-04-29 10:57:00,
2013-04-29 06:01:00,55.4,49.3,29.84,SSW,194,0.0,0.0,80,0.00,,,0.00,0,Wunderground v.1.15,2013-04-29 11:01:00,
2013-04-29 06:03:00,55.4,49.3,29.84,SSW,194,0.0,0.0,80,0.00,,,0.00,0,Wunderground v.1.15,2013-04-29 11:03:00,
2013-04-29 06:04:00,55.4,49.3,29.84,SSW,194,0.0,0.0,80,0.00,,,0.00,0,Wunderground v.1.15,2013-04-29 11:04:00,
2013-04-29 06:06:00,55.3,49.2,29.84,SSW,194,0.0,0.0,80,0.00,,,0.00,0,Wunderground v.1.15,2013-04-29 11:06:00,
2013-04-29 06:09:00,55.0,49.3,29.84,SSW,194,0.0,0.0,81,0.00,,,0.00,0,Wunderground v.1.15,2013-04-29 11:09:00,
2013-04-29 06:10:00,55.0,49.3,29.84,SSW,194,0.0,0.0,81,0.00,,,0.00,0,Wunderground v.1.15,2013-04-29 11:10:00,
2013-04-29 06:11:00,55.0,49.3,29.84,SSW,194,0.0,0.0,81,0.00,,,0.00,0,Wunderground v.1.15,2013-04-29 11:11:00,
2013-04-29 06:16:00,55.2,49.5,29.84,SSW,194,0.0,0.0,81,0.00,,,0.00,0,Wunderground v.1.15,2013-04-29 11:16:00,
2013-04-29 06:17:00,55.2,49.5,29.84,SSW,194,0.0,0.0,81,0.00,,,0.00,0,Wunderground v.1.15,2013-04-29 11:17:00,
2013-04-29 06:19:00,55.1,49.7,29.84,SSW,194,0.0,0.0,82,0.00,,,0.00,0,Wunderground v.1.15,2013-04-29 11:19:00,
2013-04-29 06:21:00,55.0,49.6,29.84,SSW,194,0.0,0.0,82,0.00,,,0.00,5,Wunderground v.1.15,2013-04-29 11:21:00,
2013-04-29 06:22:00,54.9,49.5,29.84,SSW,194,0.0,0.0,82,0.00,,,0.00,5,Wunderground v.1.15,2013-04-29 11:22:00,
2013-04-29 06:24:00,55.0,49.6,29.84,SSW,194,0.0,0.0,82,0.00,,,0.00,5,Wunderground v.1.15,2013-04-29 11:24:00,
2013-04-29 06:26:00,55.0,49.9,29.84,SSW,194,0.0,0.0,83,0.00,,,0.00,7,Wunderground v.1.15,2013-04-29 11:26:00,
2013-04-29 06:27:00,55.0,49.9,29.84,SSW,194,0.0,0.0,83,0.00,,,0.00,7,Wunderground v.1.15,2013-04-29 11:27:00,
2013-04-29 06:28:00,54.8,49.7,29.84,SSW,194,0.0,0.0,83,0.00,,,0.00,7,Wunderground v.1.15,2013-04-29 11:28:00,
2013-04-29 06:31:00,54.6,49.5,29.84,SSW,194,0.0,0.0,83,0.00,,,0.00,9,Wunderground v.1.15,2013-04-29 11:31:00,
2013-04-29 06:33:00,54.5,49.8,29.84,SSW,194,0.0,0.0,84,0.00,,,0.00,9,Wunderground v.1.15,2013-04-29 11:33:00,
2013-04-29 06:35:00,54.4,49.7,29.84,SSW,194,0.0,0.0,84,0.00,,,0.00,12,Wunderground v.1.15,2013-04-29 11:35:00,
2013-04-29 06:36:00,54.4,49.7,29.84,SSW,194,0.0,0.0,84,0.00,,,0.00,16,Wunderground v.1.15,2013-04-29 11:36:00,
2013-04-29 06:39:00,54.4,49.7,29.85,SSW,194,0.0,0.0,84,0.00,,,0.00,19,Wunderground v.1.15,2013-04-29 11:39:00,
2013-04-29 06:41:00,54.4,50.0,29.85,SSW,194,0.0,0.0,85,0.00,,,0.00,19,Wunderground v.1.15,2013-04-29 11:41:00,
2013-04-29 06:44:00,54.3,49.9,29.84,SSW,194,0.0,3.0,85,0.00,,,0.00,18,Wunderground v.1.15,2013-04-29 11:44:00,
2013-04-29 06:45:00,54.3,49.9,29.83,SSW,194,1.0,3.0,85,0.00,,,0.00,16,Wunderground v.1.15,2013-04-29 11:45:00,
2013-04-29 06:46:00,54.3,49.9,29.83,SSW,194,1.0,3.0,85,0.00,,,0.00,16,Wunderground v.1.15,2013-04-29 11:46:00,
2013-04-29 06:48:00,54.2,49.8,29.83,SSW,194,1.0,3.0,85,0.00,,,0.00,16,Wunderground v.1.15,2013-04-29 11:48:00,
2013-04-29 06:51:00,54.2,50.1,29.83,SSW,194,1.0,1.0,86,0.00,,,0.00,14,Wunderground v.1.15,2013-04-29 11:51:00,
2013-04-29 06:52:00,54.2,50.1,29.82,SSW,194,1.0,1.0,86,0.00,,,0.00,14,Wunderground v.1.15,2013-04-29 11:52:00,
2013-04-29 06:54:00,54.4,50.3,29.83,SSW,194,1.0,1.0,86,0.00,,,0.00,12,Wunderground v.1.15,2013-04-29 11:54:00,
2013-04-29 06:56:00,54.6,50.5,29.83,SSW,194,1.0,1.0,86,0.00,,,0.00,12,Wunderground v.1.15,2013-04-29 11:56:00,
2013-04-29 06:57:00,54.8,50.7,29.83,SSW,194,0.0,1.0,86,0.00,,,0.00,12,Wunderground v.1.15,2013-04-29 11:57:00,
2013-04-29 06:58:00,54.6,50.2,29.83,SSW,194,0.0,1.0,85,0.00,,,0.00,16,Wunderground v.1.15,2013-04-29 11:58:00,
2013-04-29 07:01:00,54.3,50.2,29.83,SSW,194,0.0,0.0,86,0.00,,,0.00,21,Wunderground v.1.15,2013-04-29 12:01:00,
2013-04-29 07:02:00,54.3,50.2,29.83,SSW,194,0.0,0.0,86,0.00,,,0.00,21,Wunderground v.1.15,2013-04-29 12:02:00,
2013-04-29 07:03:00,54.2,50.4,29.83,SSW,194,0.0,0.0,87,0.00,,,0.00,23,Wunderground v.1.15,2013-04-29 12:03:00,
2013-04-29 07:04:00,54.2,50.4,29.83,SSW,194,0.0,0.0,87,0.00,,,0.00,25,Wunderground v.1.15,2013-04-29 12:04:00,
2013-04-29 07:07:00,54.4,50.6,29.83,SSW,194,0.0,0.0,87,0.00,,,0.00,26,Wunderground v.1.15,2013-04-29 12:07:00,
2013-04-29 07:09:00,54.4,50.6,29.83,SSW,194,0.0,0.0,87,0.00,,,0.00,25,Wunderground v.1.15,2013-04-29 12:09:00,
2013-04-29 07:10:00,54.4,50.6,29.83,SSW,194,0.0,0.0,87,0.00,,,0.00,25,Wunderground v.1.15,2013-04-29 12:10:00,
2013-04-29 07:12:00,54.3,50.5,29.83,SSW,194,0.0,0.0,87,0.00,,,0.00,26,Wunderground v.1.15,2013-04-29 12:12:00,
2013-04-29 07:14:00,54.2,50.7,29.84,SSW,194,0.0,2.0,88,0.00,,,0.00,32,Wunderground v.1.15,2013-04-29 12:14:00,
2013-04-29 07:15:00,54.2,50.7,29.84,SSW,194,0.0,2.0,88,0.00,,,0.00,33,Wunderground v.1.15,2013-04-29 12:15:00,
2013-04-29 07:16:00,54.1,50.6,29.84,SSW,194,0.0,2.0,88,0.00,,,0.00,39,Wunderground v.1.15,2013-04-29 12:16:00,
2013-04-29 07:18:00,54.1,50.6,29.84,SSW,194,0.0,2.0,88,0.00,,,0.00,51,Wunderground v.1.15,2013-04-29 12:18:00,
2013-04-29 07:22:00,54.9,51.1,29.85,South,184,1.0,4.0,87,0.00,,,0.00,54,Wunderground v.1.15,2013-04-29 12:22:00,
2013-04-29 07:25:00,55.6,51.2,29.85,South,179,2.0,4.0,85,0.00,,,0.00,46,Wunderground v.1.15,2013-04-29 12:25:00,
2013-04-29 07:26:00,55.8,51.4,29.85,South,176,2.0,7.0,85,0.00,,,0.00,44,Wunderground v.1.15,2013-04-29 12:26:00,
2013-04-29 07:27:00,55.9,51.1,29.86,South,178,2.0,7.0,84,0.00,,,0.00,44,Wunderground v.1.15,2013-04-29 12:27:00,
2013-04-29 07:30:00,56.2,51.4,29.86,South,182,2.0,2.0,84,0.00,,,0.00,47,Wunderground v.1.15,2013-04-29 12:30:00,
2013-04-29 07:31:00,56.3,51.5,29.86,South,182,2.0,2.0,84,0.00,,,0.00,47,Wunderground v.1.15,2013-04-29 12:31:00,
2013-04-29 07:32:00,56.4,51.3,29.86,SSE,155,2.0,5.0,83,0.00,,,0.00,47,Wunderground v.1.15,2013-04-29 12:32:00,
2013-04-29 07:34:00,56.6,51.5,29.86,SSE,155,2.0,5.0,83,0.00,,,0.00,47,Wunderground v.1.15,2013-04-29 12:34:00,
2013-04-29 07:36:00,56.7,51.6,29.86,SSE,155,2.0,5.0,83,0.00,,,0.00,47,Wunderground v.1.15,2013-04-29 12:36:00,
2013-04-29 07:37:00,56.8,51.7,29.86,SSE,155,1.0,5.0,83,0.00,,,0.00,47,Wunderground v.1.15,2013-04-29 12:37:00,
2013-04-29 07:39:00,56.8,51.4,29.86,SSE,153,1.0,5.0,82,0.00,,,0.00,46,Wunderground v.1.15,2013-04-29 12:39:00,
2013-04-29 07:40:00,56.8,51.4,29.86,SSE,153,1.0,1.0,82,0.00,,,0.00,46,Wunderground v.1.15,2013-04-29 12:40:00,
2013-04-29 07:43:00,56.7,51.3,29.86,SSE,153,0.0,1.0,82,0.00,,,0.00,42,Wunderground v.1.15,2013-04-29 12:43:00,
2013-04-29 07:45:00,56.7,51.3,29.86,SSE,153,0.0,2.0,82,0.00,,,0.00,44,Wunderground v.1.15,2013-04-29 12:45:00,
2013-04-29 07:46:00,56.7,51.3,29.86,SSE,151,1.0,4.0,82,0.00,,,0.00,46,Wunderground v.1.15,2013-04-29 12:46:00,
2013-04-29 07:47:00,56.7,51.3,29.86,SSE,151,1.0,4.0,82,0.00,,,0.00,47,Wunderground v.1.15,2013-04-29 12:47:00,
2013-04-29 07:48:00,56.8,51.4,29.86,SSE,150,1.0,4.0,82,0.00,,,0.00,49,Wunderground v.1.15,2013-04-29 12:48:00,
2013-04-29 07:49:00,56.8,51.4,29.86,SSE,147,1.0,4.0,82,0.00,,,0.00,51,Wunderground v.1.15,2013-04-29 12:49:00,
2013-04-29 07:52:00,56.8,51.4,29.86,SSE,147,2.0,2.0,82,0.00,,,0.00,54,Wunderground v.1.15,2013-04-29 12:52:00,
2013-04-29 07:53:00,56.9,51.5,29.85,SSE,147,2.0,2.0,82,0.00,,,0.00,58,Wunderground v.1.15,2013-04-29 12:53:00,
2013-04-29 07:58:00,57.0,51.6,29.85,SSE,147,1.0,2.0,82,0.00,,,0.00,77,Wunderground v.1.15,2013-04-29 12:58:00,
2013-04-29 07:59:00,57.1,51.7,29.84,SSE,147,1.0,2.0,82,0.00,,,0.00,79,Wunderground v.1.15,2013-04-29 12:59:00,
2013-04-29 08:00:00,57.1,51.7,29.84,SSE,147,1.0,1.0,82,0.00,,,0.00,81,Wunderground v.1.15,2013-04-29 13:00:00,
2013-04-29 08:03:00,57.1,51.7,29.84,SSE,147,1.0,2.0,82,0.00,,,0.00,86,Wunderground v.1.15,2013-04-29 13:03:00,
2013-04-29 08:05:00,57.1,51.7,29.84,SE,140,1.0,5.0,82,0.00,,,0.00,95,Wunderground v.1.15,2013-04-29 13:05:00,
2013-04-29 08:06:00,57.1,51.7,29.84,SE,146,1.0,5.0,82,0.00,,,0.00,100,Wunderground v.1.15,2013-04-29 13:06:00,
2013-04-29 08:09:00,57.1,52.0,29.83,ESE,107,2.0,6.0,83,0.00,,,0.00,113,Wunderground v.1.15,2013-04-29 13:09:00,
2013-04-29 08:11:00,57.1,52.0,29.82,East,96,3.0,6.0,83,0.00,,,0.00,118,Wunderground v.1.15,2013-04-29 13:11:00,
2013-04-29 08:12:00,57.1,52.0,29.82,East,98,3.0,6.0,83,0.00,,,0.00,125,Wunderground v.1.15,2013-04-29 13:12:00,
2013-04-29 08:15:00,57.1,52.3,29.81,NE,46,4.0,7.0,84,0.00,,,0.00,134,Wunderground v.1.15,2013-04-29 13:15:00,
2013-04-29 08:17:00,57.1,52.3,29.82,NE,41,4.0,7.0,84,0.00,,,0.00,141,Wunderground v.1.15,2013-04-29 13:17:00,
2013-04-29 08:18:00,57.1,52.3,29.82,NE,41,3.0,7.0,84,0.00,,,0.00,142,Wunderground v.1.15,2013-04-29 13:18:00,
2013-04-29 08:19:00,57.2,52.4,29.81,NE,41,3.0,7.0,84,0.00,,,0.00,142,Wunderground v.1.15,2013-04-29 13:19:00,
2013-04-29 08:24:00,57.3,52.5,29.80,NNE,32,2.0,3.0,84,0.00,,,0.00,148,Wunderground v.1.15,2013-04-29 13:24:00,
2013-04-29 08:27:00,57.5,52.7,29.80,NE,49,2.0,4.0,84,0.00,,,0.00,130,Wunderground v.1.15,2013-04-29 13:27:00,
2013-04-29 08:28:00,57.5,52.7,29.80,ENE,69,2.0,4.0,84,0.00,,,0.00,142,Wunderground v.1.15,2013-04-29 13:28:00,
2013-04-29 08:29:00,57.5,52.7,29.80,ENE,67,2.0,4.0,84,0.00,,,0.00,128,Wunderground v.1.15,2013-04-29 13:29:00,
2013-04-29 08:32:00,57.6,52.8,29.80,ENE,65,2.0,3.0,84,0.00,,,0.00,137,Wunderground v.1.15,2013-04-29 13:32:00,
2013-04-29 08:33:00,57.6,52.8,29.80,NE,44,2.0,3.0,84,0.00,,,0.00,146,Wunderground v.1.15,2013-04-29 13:33:00,
2013-04-29 08:34:00,57.6,52.8,29.80,NE,44,2.0,3.0,84,0.00,,,0.00,153,Wunderground v.1.15,2013-04-29 13:34:00,
2013-04-29 08:35:00,57.7,52.9,29.80,NE,44,2.0,3.0,84,0.00,,,0.00,162,Wunderground v.1.15,2013-04-29 13:35:00,
2013-04-29 08:37:00,57.8,53.0,29.80,NE,44,2.0,3.0,84,0.00,,,0.00,172,Wunderground v.1.15,2013-04-29 13:37:00,
2013-04-29 08:39:00,57.9,52.8,29.80,NE,44,2.0,3.0,83,0.00,,,0.00,169,Wunderground v.1.15,2013-04-29 13:39:00,
2013-04-29 08:40:00,58.0,52.9,29.80,NE,44,2.0,2.0,83,0.00,,,0.00,169,Wunderground v.1.15,2013-04-29 13:40:00,
2013-04-29 08:42:00,58.1,53.0,29.80,NE,44,1.0,2.0,83,0.00,,,0.00,179,Wunderground v.1.15,2013-04-29 13:42:00,
2013-04-29 08:45:00,58.2,53.4,29.80,NE,44,1.0,2.0,84,0.00,,,0.00,190,Wunderground v.1.15,2013-04-29 13:45:00,
2013-04-29 08:46:00,58.3,53.2,29.80,NE,44,1.0,2.0,83,0.00,,,0.00,207,Wunderground v.1.15,2013-04-29 13:46:00,
2013-04-29 08:47:00,58.2,53.1,29.81,NE,44,0.0,2.0,83,0.00,,,0.00,171,Wunderground v.1.15,2013-04-29 13:47:00,
2013-04-29 08:48:00,58.3,53.2,29.81,NE,45,0.0,2.0,83,0.00,,,0.00,158,Wunderground v.1.15,2013-04-29 13:48:00,
2013-04-29 08:52:00,58.4,53.3,29.82,NE,46,0.0,3.0,83,0.00,,,0.00,137,Wunderground v.1.15,2013-04-29 13:52:00,
2013-04-29 08:54:00,58.4,53.3,29.82,SW,215,0.0,3.0,83,0.00,,,0.00,135,Wunderground v.1.15,2013-04-29 13:54:00,
2013-04-29 08:57:00,58.4,53.3,29.83,South,175,1.0,3.0,83,0.00,,,0.00,132,Wunderground v.1.15,2013-04-29 13:57:00,
2013-04-29 09:00:00,58.2,53.1,29.83,South,182,2.0,2.0,83,0.00,,,0.00,146,Wunderground v.1.15,2013-04-29 14:00:00,
2013-04-29 09:01:00,58.2,53.1,29.83,South,180,2.0,2.0,83,0.00,,,0.00,151,Wunderground v.1.15,2013-04-29 14:01:00,
2013-04-29 09:02:00,58.1,53.0,29.83,South,178,2.0,2.0,83,0.00,,,0.00,151,Wunderground v.1.15,2013-04-29 14:02:00,
2013-04-29 09:03:00,58.1,53.3,29.83,South,178,2.0,2.0,84,0.00,,,0.00,148,Wunderground v.1.15,2013-04-29 14:03:00,
2013-04-29 09:04:00,58.1,53.3,29.83,SSE,168,2.0,2.0,84,0.00,,,0.00,146,Wunderground v.1.15,2013-04-29 14:04:00,
2013-04-29 09:08:00,58.1,53.3,29.83,SSW,196,2.0,6.0,84,0.00,,,0.00,134,Wunderground v.1.15,2013-04-29 14:08:00,
2013-04-29 09:09:00,58.1,53.3,29.83,South,188,2.0,6.0,84,0.00,,,0.00,120,Wunderground v.1.15,2013-04-29 14:09:00,
2013-04-29 09:11:00,58.2,53.4,29.84,South,174,2.0,6.0,84,0.00,,,0.00,105,Wunderground v.1.15,2013-04-29 14:11:00,
2013-04-29 09:14:00,58.1,53.3,29.84,South,181,3.0,6.0,84,0.00,,,0.00,84,Wunderground v.1.15,2013-04-29 14:14:00,
2013-04-29 09:15:00,58.1,53.3,29.84,SSE,162,3.0,6.0,84,0.00,,,0.00,77,Wunderground v.1.15,2013-04-29 14:15:00,
2013-04-29 09:16:00,58.1,53.3,29.84,SSE,159,3.0,6.0,84,0.00,,,0.00,62,Wunderground v.1.15,2013-04-29 14:16:00,
2013-04-29 09:18:00,58.0,53.2,29.84,SSE,163,3.0,6.0,84,0.00,,,0.00,47,Wunderground v.1.15,2013-04-29 14:18:00,
2013-04-29 09:19:00,58.0,53.5,29.84,SSE,167,3.0,6.0,85,0.00,,,0.00,40,Wunderground v.1.15,2013-04-29 14:19:00,
2013-04-29 09:21:00,57.9,53.4,29.85,South,169,3.0,4.0,85,0.00,,,0.00,28,Wunderground v.1.15,2013-04-29 14:21:00,
2013-04-29 09:22:00,57.9,53.4,29.85,South,169,3.0,4.0,85,0.00,,,0.00,26,Wunderground v.1.15,2013-04-29 14:22:00,
2013-04-29 09:24:00,57.8,53.3,29.85,South,169,2.0,4.0,85,0.00,,,0.00,25,Wunderground v.1.15,2013-04-29 14:24:00,
2013-04-29 09:27:00,57.8,53.3,29.85,SSE,167,2.0,7.0,85,0.00,,,0.00,19,Wunderground v.1.15,2013-04-29 14:27:00,
2013-04-29 09:28:00,57.7,53.2,29.85,SSE,167,2.0,7.0,85,0.00,,,0.00,16,Wunderground v.1.15,2013-04-29 14:28:00,
2013-04-29 09:29:00,57.7,53.2,29.85,South,181,2.0,7.0,85,0.00,,,0.00,16,Wunderground v.1.15,2013-04-29 14:29:00,
2013-04-29 09:32:00,57.6,53.4,29.86,South,175,3.0,8.0,86,0.00,,,0.00,14,Wunderground v.1.15,2013-04-29 14:32:00,
2013-04-29 09:34:00,57.5,53.3,29.85,SSE,152,4.0,8.0,86,0.00,,,0.00,12,Wunderground v.1.15,2013-04-29 14:34:00,
2013-04-29 09:35:00,57.5,53.3,29.85,SSE,162,4.0,8.0,86,0.00,,,0.00,12,Wunderground v.1.15,2013-04-29 14:35:00,
2013-04-29 09:39:00,57.3,53.1,29.85,SE,143,5.0,8.0,86,0.00,,,0.00,12,Wunderground v.1.15,2013-04-29 14:39:00,
2013-04-29 09:42:00,57.1,53.3,29.85,SE,142,5.0,8.0,87,0.00,,,0.00,16,Wunderground v.1.15,2013-04-29 14:42:00,
2013-04-29 09:43:00,57.0,53.2,29.85,SSE,151,5.0,8.0,87,0.00,,,0.01,16,Wunderground v.1.15,2013-04-29 14:43:00,
2013-04-29 09:45:00,56.8,53.0,29.85,SSE,155,5.0,8.0,87,0.00,,,0.01,19,Wunderground v.1.15,2013-04-29 14:45:00,
2013-04-29 09:47:00,56.8,53.3,29.85,SSE,152,5.0,8.0,88,0.00,,,0.01,23,Wunderground v.1.15,2013-04-29 14:47:00,
2013-04-29 09:48:00,56.7,53.2,29.85,SE,144,5.0,8.0,88,0.00,,,0.01,25,Wunderground v.1.15,2013-04-29 14:48:00,
2013-04-29 09:49:00,56.6,53.1,29.85,SSE,158,5.0,8.0,88,0.00,,,0.01,28,Wunderground v.1.15,2013-04-29 14:49:00,
2013-04-29 09:52:00,56.4,53.2,29.85,SSE,163,4.0,5.0,89,0.09,,,0.02,33,Wunderground v.1.15,2013-04-29 14:52:00,
2013-04-29 09:53:00,56.3,53.1,29.85,SSE,163,4.0,5.0,89,0.16,,,0.02,37,Wunderground v.1.15,2013-04-29 14:53:00,
2013-04-29 09:57:00,56.2,53.3,29.84,SSE,163,2.0,5.0,90,0.28,,,0.04,53,Wunderground v.1.15,2013-04-29 14:57:00,
2013-04-29 09:59:00,56.1,53.2,29.84,SSE,163,1.0,5.0,90,0.20,,,0.04,63,Wunderground v.1.15,2013-04-29 14:59:00,
2013-04-29 10:04:00,56.0,53.4,29.83,SSE,159,0.0,3.0,91,0.07,,,0.04,137,Wunderground v.1.15,2013-04-29 15:04:00,
2013-04-29 10:05:00,55.9,53.3,29.83,SSE,158,0.0,3.0,91,0.06,,,0.04,148,Wunderground v.1.15,2013-04-29 15:05:00,
2013-04-29 10:07:00,55.9,53.3,29.83,South,176,0.0,3.0,91,0.05,,,0.04,153,Wunderground v.1.15,2013-04-29 15:07:00,
2013-04-29 10:11:00,55.8,53.5,29.83,South,176,1.0,2.0,92,0.04,,,0.04,149,Wunderground v.1.15,2013-04-29 15:11:00,
2013-04-29 10:12:00,55.8,53.5,29.83,South,175,1.0,2.0,92,0.04,,,0.04,146,Wunderground v.1.15,2013-04-29 15:12:00,
2013-04-29 10:13:00,55.8,53.5,29.83,South,175,1.0,2.0,92,0.00,,,0.04,142,Wunderground v.1.15,2013-04-29 15:13:00,
2013-04-29 10:16:00,55.8,53.5,29.83,South,175,1.0,2.0,92,0.00,,,0.04,146,Wunderground v.1.15,2013-04-29 15:16:00,
2013-04-29 10:18:00,55.9,53.9,29.83,South,175,1.0,2.0,93,0.00,,,0.04,167,Wunderground v.1.15,2013-04-29 15:18:00,
2013-04-29 10:20:00,56.0,54.0,29.83,South,175,0.0,0.0,93,0.00,,,0.04,179,Wunderground v.1.15,2013-04-29 15:20:00,
2013-04-29 10:22:00,56.1,54.1,29.82,South,175,0.0,1.0,93,0.00,,,0.04,200,Wunderground v.1.15,2013-04-29 15:22:00,
2013-04-29 10:24:00,56.3,54.3,29.82,South,175,0.0,1.0,93,0.00,,,0.04,207,Wunderground v.1.15,2013-04-29 15:24:00,
2013-04-29 10:25:00,56.4,54.4,29.82,South,175,0.0,1.0,93,0.00,,,0.04,221,Wunderground v.1.15,2013-04-29 15:25:00,
2013-04-29 10:27:00,56.4,54.4,29.82,South,175,0.0,1.0,93,0.00,,,0.04,246,Wunderground v.1.15,2013-04-29 15:27:00,
2013-04-29 10:28:00,56.6,54.6,29.82,South,175,0.0,1.0,93,0.00,,,0.04,260,Wunderground v.1.15,2013-04-29 15:28:00,
2013-04-29 10:30:00,56.7,54.7,29.82,South,175,0.0,0.0,93,0.00,,,0.04,285,Wunderground v.1.15,2013-04-29 15:30:00,
2013-04-29 10:31:00,56.9,54.9,29.82,South,175,0.0,0.0,93,0.00,,,0.04,316,Wunderground v.1.15,2013-04-29 15:31:00,
2013-04-29 10:34:00,57.1,54.8,29.82,South,175,0.0,2.0,92,0.00,,,0.04,339,Wunderground v.1.15,2013-04-29 15:34:00,
2013-04-29 10:37:00,57.3,55.0,29.82,South,175,0.0,2.0,92,0.00,,,0.04,265,Wunderground v.1.15,2013-04-29 15:37:00,
2013-04-29 10:39:00,57.4,54.8,29.82,South,176,1.0,2.0,91,0.00,,,0.04,279,Wunderground v.1.15,2013-04-29 15:39:00,
2013-04-29 10:41:00,57.4,54.8,29.82,South,177,1.0,2.0,91,0.00,,,0.04,306,Wunderground v.1.15,2013-04-29 15:41:00,
2013-04-29 10:44:00,57.5,54.9,29.82,NW,319,1.0,3.0,91,0.00,,,0.04,287,Wunderground v.1.15,2013-04-29 15:44:00,
2013-04-29 10:45:00,57.5,54.9,29.82,NW,319,1.0,3.0,91,0.00,,,0.04,294,Wunderground v.1.15,2013-04-29 15:45:00,
2013-04-29 10:46:00,57.6,55.0,29.82,NW,319,1.0,3.0,91,0.00,,,0.04,301,Wunderground v.1.15,2013-04-29 15:46:00,
2013-04-29 10:48:00,57.8,55.2,29.82,NW,319,1.0,3.0,91,0.00,,,0.04,302,Wunderground v.1.15,2013-04-29 15:48:00,
2013-04-29 10:50:00,57.8,54.9,29.82,NW,319,1.0,1.0,90,0.00,,,0.04,287,Wunderground v.1.15,2013-04-29 15:50:00,
2013-04-29 10:51:00,58.0,55.1,29.82,NW,319,1.0,1.0,90,0.00,,,0.04,276,Wunderground v.1.15,2013-04-29 15:51:00,
2013-04-29 10:52:00,58.2,55.3,29.82,NW,319,1.0,1.0,90,0.00,,,0.04,264,Wunderground v.1.15,2013-04-29 15:52:00,
2013-04-29 10:53:00,58.3,55.4,29.82,NW,319,1.0,1.0,90,0.00,,,0.04,271,Wunderground v.1.15,2013-04-29 15:53:00,
2013-04-29 10:56:00,58.6,55.7,29.82,NW,319,1.0,1.0,90,0.00,,,0.04,343,Wunderground v.1.15,2013-04-29 15:56:00,
2013-04-29 10:57:00,58.7,55.8,29.82,NW,319,0.0,1.0,90,0.00,,,0.04,343,Wunderground v.1.15,2013-04-29 15:57:00,
2013-04-29 10:58:00,58.7,55.8,29.82,NW,319,0.0,1.0,90,0.00,,,0.04,380,Wunderground v.1.15,2013-04-29 15:58:00,
2013-04-29 10:59:00,58.7,55.5,29.82,NW,319,0.0,1.0,89,0.00,,,0.04,380,Wunderground v.1.15,2013-04-29 15:59:00,
2013-04-29 11:04:00,59.0,55.8,29.82,NW,319,1.0,3.0,89,0.00,,,0.04,436,Wunderground v.1.15,2013-04-29 16:04:00,
2013-04-29 11:05:00,59.2,56.3,29.82,NW,319,1.0,3.0,90,0.00,,,0.04,436,Wunderground v.1.15,2013-04-29 16:05:00,
2013-04-29 11:06:00,59.3,56.1,29.82,NW,319,1.0,3.0,89,0.00,,,0.04,436,Wunderground v.1.15,2013-04-29 16:06:00,
2013-04-29 11:07:00,59.4,55.8,29.82,NW,319,1.0,3.0,88,0.00,,,0.04,436,Wunderground v.1.15,2013-04-29 16:07:00,
2013-04-29 11:12:00,59.9,56.0,29.83,NW,319,1.0,1.0,87,0.00,,,0.04,508,Wunderground v.1.15,2013-04-29 16:12:00,
2013-04-29 11:13:00,60.3,56.4,29.83,NW,319,1.0,1.0,87,0.00,,,0.04,508,Wunderground v.1.15,2013-04-29 16:13:00,
2013-04-29 11:14:00,60.9,57.9,29.83,NW,319,0.0,1.0,90,0.00,,,0.04,508,Wunderground v.1.15,2013-04-29 16:14:00,
2013-04-29 11:15:00,61.6,58.9,29.83,NW,319,0.0,1.0,91,0.00,,,0.04,469,Wunderground v.1.15,2013-04-29 16:15:00,
2013-04-29 11:18:00,61.6,57.4,29.83,SW,221,0.0,3.0,86,0.00,,,0.04,670,Wunderground v.1.15,2013-04-29 16:18:00,
2013-04-29 11:19:00,61.3,56.8,29.83,SW,221,1.0,3.0,85,0.00,,,0.04,670,Wunderground v.1.15,2013-04-29 16:19:00,
2013-04-29 11:20:00,61.1,56.6,29.83,SW,221,1.0,2.0,85,0.00,,,0.04,670,Wunderground v.1.15,2013-04-29 16:20:00,
2013-04-29 11:21:00,61.0,56.8,29.83,SW,221,1.0,2.0,86,0.00,,,0.04,835,Wunderground v.1.15,2013-04-29 16:21:00,
2013-04-29 11:22:00,61.0,56.8,29.83,SW,216,1.0,2.0,86,0.00,,,0.04,914,Wunderground v.1.15,2013-04-29 16:22:00,
2013-04-29 11:26:00,61.1,56.6,29.83,SW,216,2.0,2.0,85,0.00,,,0.04,800,Wunderground v.1.15,2013-04-29 16:26:00,
2013-04-29 11:27:00,61.6,57.4,29.83,SW,216,2.0,2.0,86,0.00,,,0.04,756,Wunderground v.1.15,2013-04-29 16:27:00,
2013-04-29 11:28:00,62.0,57.8,29.83,SSW,209,1.0,2.0,86,0.00,,,0.04,752,Wunderground v.1.15,2013-04-29 16:28:00,
2013-04-29 11:29:00,61.9,56.7,29.83,South,188,1.0,3.0,83,0.00,,,0.04,838,Wunderground v.1.15,2013-04-29 16:29:00,
2013-04-29 11:31:00,61.7,57.1,29.83,South,188,1.0,3.0,85,0.00,,,0.04,881,Wunderground v.1.15,2013-04-29 16:31:00,
2013-04-29 11:33:00,61.9,57.0,29.82,South,172,1.0,5.0,84,0.00,,,0.04,687,Wunderground v.1.15,2013-04-29 16:33:00,
2013-04-29 11:34:00,61.8,56.9,29.82,SSE,155,1.0,5.0,84,0.00,,,0.04,687,Wunderground v.1.15,2013-04-29 16:34:00,
2013-04-29 11:36:00,61.7,56.8,29.82,SSE,165,2.0,5.0,84,0.00,,,0.04,881,Wunderground v.1.15,2013-04-29 16:36:00,
2013-04-29 11:39:00,62.0,57.4,29.82,ESE,111,3.0,5.0,85,0.00,,,0.04,904,Wunderground v.1.15,2013-04-29 16:39:00,
2013-04-29 11:40:00,62.1,57.5,29.82,SE,142,2.0,2.0,85,0.00,,,0.04,904,Wunderground v.1.15,2013-04-29 16:40:00,
2013-04-29 11:42:00,62.5,57.9,29.82,SSE,158,3.0,8.0,85,0.00,,,0.04,937,Wunderground v.1.15,2013-04-29 16:42:00,
2013-04-29 11:44:00,62.2,57.0,29.82,SW,219,3.0,9.0,83,0.00,,,0.04,884,Wunderground v.1.15,2013-04-29 16:44:00,
2013-04-29 11:45:00,62.2,57.0,29.82,South,178,4.0,9.0,83,0.00,,,0.04,874,Wunderground v.1.15,2013-04-29 16:45:00,
2013-04-29 11:47:00,62.1,56.5,29.82,South,171,5.0,10.0,82,0.00,,,0.04,863,Wunderground v.1.15,2013-04-29 16:47:00,
2013-04-29 11:49:00,62.4,56.8,29.83,South,185,5.0,10.0,82,0.00,,,0.04,840,Wunderground v.1.15,2013-04-29 16:49:00,
2013-04-29 11:52:00,62.7,56.4,29.83,SSE,161,6.0,9.0,80,0.00,,,0.04,923,Wunderground v.1.15,2013-04-29 16:52:00,
2013-04-29 11:53:00,62.5,56.2,29.83,SE,144,6.0,9.0,80,0.00,,,0.04,939,Wunderground v.1.15,2013-04-29 16:53:00,
2013-04-29 11:54:00,62.5,56.6,29.83,South,171,6.0,9.0,81,0.00,,,0.04,949,Wunderground v.1.15,2013-04-29 16:54:00,
2013-04-29 11:57:00,62.7,57.1,29.82,South,177,6.0,9.0,82,0.00,,,0.04,900,Wunderground v.1.15,2013-04-29 16:57:00,
2013-04-29 11:59:00,62.6,56.7,29.82,South,178,6.0,9.0,81,0.00,,,0.04,849,Wunderground v.1.15,2013-04-29 16:59:00,
2013-04-29 12:00:00,62.5,56.6,29.82,South,185,6.0,6.0,81,0.00,,,0.04,849,Wunderground v.1.15,2013-04-29 17:00:00,
2013-04-29 12:01:00,62.4,56.5,29.82,South,186,6.0,6.0,81,0.00,,,0.04,849,Wunderground v.1.15,2013-04-29 17:01:00,
2013-04-29 12:04:00,62.3,56.4,29.82,South,170,5.0,6.0,81,0.00,,,0.04,849,Wunderground v.1.15,2013-04-29 17:04:00,
2013-04-29 12:05:00,62.6,57.0,29.82,SSW,196,4.0,6.0,82,0.00,,,0.04,519,Wunderground v.1.15,2013-04-29 17:05:00,
2013-04-29 12:07:00,62.5,56.6,29.82,South,184,4.0,6.0,81,0.00,,,0.04,373,Wunderground v.1.15,2013-04-29 17:07:00,
2013-04-29 12:09:00,62.6,56.7,29.81,South,189,4.0,6.0,81,0.00,,,0.04,974,Wunderground v.1.15,2013-04-29 17:09:00,
2013-04-29 12:10:00,62.6,56.7,29.81,SSW,196,4.0,4.0,81,0.00,,,0.04,974,Wunderground v.1.15,2013-04-29 17:10:00,
2013-04-29 12:11:00,62.8,57.2,29.81,SSW,196,4.0,4.0,82,0.00,,,0.04,974,Wunderground v.1.15,2013-04-29 17:11:00,
2013-04-29 12:13:00,63.1,56.8,29.81,SSW,208,4.0,5.0,80,0.00,,,0.04,974,Wunderground v.1.15,2013-04-29 17:13:00,
2013-04-29 12:15:00,63.2,57.3,29.81,South,182,4.0,5.0,81,0.00,,,0.04,976,Wunderground v.1.15,2013-04-29 17:15:00,
2013-04-29 12:16:00,63.4,57.5,29.81,South,182,3.0,5.0,81,0.00,,,0.04,986,Wunderground v.1.15,2013-04-29 17:16:00,
2013-04-29 12:17:00,63.5,57.2,29.81,SE,144,3.0,5.0,80,0.00,,,0.04,939,Wunderground v.1.15,2013-04-29 17:17:00,
2013-04-29 12:18:00,63.6,57.0,29.81,SSW,205,3.0,5.0,79,0.00,,,0.04,939,Wunderground v.1.15,2013-04-29 17:18:00,
2013-04-29 12:21:00,63.9,57.3,29.81,SSW,197,3.0,5.0,79,0.00,,,0.04,911,Wunderground v.1.15,2013-04-29 17:21:00,
2013-04-29 12:22:00,64.1,57.5,29.81,SSW,192,3.0,5.0,79,0.00,,,0.04,884,Wunderground v.1.15,2013-04-29 17:22:00,
2013-04-29 12:23:00,64.4,57.7,29.81,SSE,165,3.0,6.0,79,0.00,,,0.04,884,Wunderground v.1.15,2013-04-29 17:23:00,
2013-04-29 12:27:00,64.2,56.8,29.80,SSE,149,4.0,7.0,77,0.00,,,0.04,846,Wunderground v.1.15,2013-04-29 17:27:00,
2013-04-29 12:28:00,64.0,56.6,29.80,South,179,4.0,7.0,77,0.00,,,0.04,861,Wunderground v.1.15,2013-04-29 17:28:00,
2013-04-29 12:29:00,64.1,57.1,29.80,ESE,123,4.0,7.0,78,0.00,,,0.04,861,Wunderground v.1.15,2013-04-29 17:29:00,
2013-04-29 12:31:00,64.5,57.1,29.80,SE,144,4.0,4.0,77,0.00,,,0.04,1041,Wunderground v.1.15,2013-04-29 17:31:00,
2013-04-29 12:32:00,64.8,57.8,29.80,SW,218,4.0,6.0,78,0.00,,,0.04,974,Wunderground v.1.15,2013-04-29 17:32:00,
2013-04-29 12:34:00,64.8,57.4,29.80,South,184,4.0,6.0,77,0.00,,,0.04,904,Wunderground v.1.15,2013-04-29 17:34:00,
2013-04-29 12:36:00,64.7,57.0,29.80,South,172,4.0,6.0,76,0.00,,,0.04,904,Wunderground v.1.15,2013-04-29 17:36:00,
2013-04-29 12:37:00,64.9,57.9,29.80,SSW,194,3.0,6.0,78,0.00,,,0.04,599,Wunderground v.1.15,2013-04-29 17:37:00,
2013-04-29 12:39:00,64.8,57.1,29.80,South,178,3.0,6.0,76,0.00,,,0.04,599,Wunderground v.1.15,2013-04-29 17:39:00,
2013-04-29 12:41:00,65.0,57.6,29.80,SSW,201,4.0,5.0,77,0.00,,,0.04,926,Wunderground v.1.15,2013-04-29 17:41:00,
2013-04-29 12:43:00,65.5,58.5,29.80,SSE,149,4.0,7.0,78,0.00,,,0.04,926,Wunderground v.1.15,2013-04-29 17:43:00,
2013-04-29 12:44:00,65.8,58.0,29.80,South,185,4.0,7.0,76,0.00,,,0.04,926,Wunderground v.1.15,2013-04-29 17:44:00,
2013-04-29 12:48:00,64.9,56.8,29.80,SE,146,4.0,9.0,75,0.00,,,0.04,360,Wunderground v.1.15,2013-04-29 17:48:00,
2013-04-29 12:49:00,64.8,56.7,29.80,SSW,210,4.0,9.0,75,0.00,,,0.04,371,Wunderground v.1.15,2013-04-29 17:49:00,
2013-04-29 12:50:00,64.8,57.1,29.80,South,189,4.0,5.0,76,0.00,,,0.04,438,Wunderground v.1.15,2013-04-29 17:50:00,
2013-04-29 12:52:00,64.7,57.0,29.80,South,184,5.0,8.0,76,0.00,,,0.04,503,Wunderground v.1.15,2013-04-29 17:52:00,
2013-04-29 12:53:00,64.7,57.7,29.80,SSE,167,5.0,8.0,78,0.00,,,0.04,582,Wunderground v.1.15,2013-04-29 17:53:00,
2013-04-29 12:56:00,64.8,57.1,29.79,South,175,5.0,8.0,76,0.00,,,0.04,582,Wunderground v.1.15,2013-04-29 17:56:00,
2013-04-29 12:59:00,64.6,56.9,29.79,SSW,192,4.0,8.0,76,0.00,,,0.04,513,Wunderground v.1.15,2013-04-29 17:59:00,
2013-04-29 13:00:00,64.9,57.5,29.79,South,178,4.0,4.0,77,0.00,,,0.04,513,Wunderground v.1.15,2013-04-29 18:00:00,
2013-04-29 13:04:00,65.0,56.9,29.79,East,92,4.0,5.0,75,0.00,,,0.04,483,Wunderground v.1.15,2013-04-29 18:04:00,
2013-04-29 13:07:00,65.3,56.8,29.78,SE,124,4.0,8.0,74,0.00,,,0.04,483,Wunderground v.1.15,2013-04-29 18:07:00,
2013-04-29 13:08:00,65.3,57.2,29.78,SE,125,4.0,8.0,75,0.00,,,0.04,1009,Wunderground v.1.15,2013-04-29 18:08:00,
2013-04-29 13:09:00,65.2,56.7,29.78,SE,144,5.0,8.0,74,0.00,,,0.04,1009,Wunderground v.1.15,2013-04-29 18:09:00,
2013-04-29 13:10:00,65.0,56.9,29.78,South,181,5.0,5.0,75,0.00,,,0.04,935,Wunderground v.1.15,2013-04-29 18:10:00,
2013-04-29 13:12:00,65.1,57.0,29.78,SE,128,5.0,7.0,75,0.00,,,0.04,320,Wunderground v.1.15,2013-04-29 18:12:00,
2013-04-29 13:14:00,64.7,56.6,29.78,SE,129,5.0,7.0,75,0.00,,,0.04,320,Wunderground v.1.15,2013-04-29 18:14:00,
2013-04-29 13:18:00,65.8,57.3,29.78,South,176,4.0,7.0,74,0.00,,,0.04,415,Wunderground v.1.15,2013-04-29 18:18:00,
2013-04-29 13:19:00,65.7,56.8,29.78,South,176,4.0,7.0,73,0.00,,,0.04,438,Wunderground v.1.15,2013-04-29 18:19:00,
2013-04-29 13:20:00,65.5,57.0,29.78,South,169,3.0,3.0,74,0.00,,,0.04,438,Wunderground v.1.15,2013-04-29 18:20:00,
2013-04-29 13:21:00,65.5,57.4,29.77,South,180,3.0,5.0,75,0.00,,,0.04,394,Wunderground v.1.15,2013-04-29 18:21:00,
2013-04-29 13:22:00,65.4,56.9,29.77,SSW,205,3.0,5.0,74,0.00,,,0.04,394,Wunderground v.1.15,2013-04-29 18:22:00,
2013-04-29 13:23:00,65.4,57.3,29.77,SSW,192,3.0,5.0,75,0.00,,,0.04,394,Wunderground v.1.15,2013-04-29 18:23:00,
2013-04-29 13:25:00,65.7,57.6,29.77,South,190,3.0,5.0,75,0.00,,,0.04,394,Wunderground v.1.15,2013-04-29 18:25:00,
2013-04-29 13:26:00,66.1,57.9,29.77,ESE,119,3.0,5.0,75,0.00,,,0.04,394,Wunderground v.1.15,2013-04-29 18:26:00,
2013-04-29 13:30:00,66.8,57.9,29.78,ENE,71,3.0,5.0,73,0.00,,,0.04,531,Wunderground v.1.15,2013-04-29 18:30:00,
2013-04-29 13:31:00,66.9,58.0,29.77,ESE,119,3.0,5.0,73,0.00,,,0.04,584,Wunderground v.1.15,2013-04-29 18:31:00,
2013-04-29 13:32:00,67.2,58.6,29.77,East,82,3.0,5.0,74,0.00,,,0.04,615,Wunderground v.1.15,2013-04-29 18:32:00,
2013-04-29 13:35:00,67.2,57.9,29.78,SW,214,4.0,8.0,72,0.00,,,0.04,698,Wunderground v.1.15,2013-04-29 18:35:00,
2013-04-29 13:36:00,67.2,57.9,29.78,ESE,107,4.0,8.0,72,0.00,,,0.04,698,Wunderground v.1.15,2013-04-29 18:36:00,
2013-04-29 13:37:00,67.2,57.9,29.78,East,79,4.0,8.0,72,0.00,,,0.04,698,Wunderground v.1.15,2013-04-29 18:37:00,
2013-04-29 13:38:00,67.2,57.5,29.78,East,97,5.0,8.0,71,0.00,,,0.04,353,Wunderground v.1.15,2013-04-29 18:38:00,
2013-04-29 13:40:00,67.2,57.5,29.78,SE,144,5.0,12.0,71,0.00,,,0.04,346,Wunderground v.1.15,2013-04-29 18:40:00,
2013-04-29 13:43:00,67.6,58.2,29.78,South,183,6.0,12.0,72,0.00,,,0.04,163,Wunderground v.1.15,2013-04-29 18:43:00,
2013-04-29 13:44:00,67.8,58.1,29.78,SSW,207,5.0,12.0,71,0.00,,,0.04,174,Wunderground v.1.15,2013-04-29 18:44:00,
2013-04-29 13:46:00,68.1,57.9,29.78,SSW,195,5.0,12.0,70,0.00,,,0.04,193,Wunderground v.1.15,2013-04-29 18:46:00,
2013-04-29 13:48:00,68.1,57.1,29.78,South,170,5.0,12.0,68,0.00,,,0.04,362,Wunderground v.1.15,2013-04-29 18:48:00,
2013-04-29 13:50:00,67.9,56.5,29.78,South,172,4.0,6.0,67,0.00,,,0.04,420,Wunderground v.1.15,2013-04-29 18:50:00,
2013-04-29 13:51:00,67.7,56.3,29.77,SE,131,4.0,7.0,67,0.00,,,0.04,420,Wunderground v.1.15,2013-04-29 18:51:00,
2013-04-29 13:53:00,67.7,55.9,29.77,SE,143,5.0,15.0,66,0.00,,,0.04,752,Wunderground v.1.15,2013-04-29 18:53:00,
2013-04-29 13:56:00,67.9,55.7,29.77,SE,128,7.0,15.0,65,0.00,,,0.04,548,Wunderground v.1.15,2013-04-29 18:56:00,
2013-04-29 13:58:00,68.0,56.2,29.77,South,181,8.0,15.0,66,0.00,,,0.04,598,Wunderground v.1.15,2013-04-29 18:58:00,
2013-04-29 13:59:00,68.2,56.4,29.77,South,188,8.0,15.0,66,0.00,,,0.04,598,Wunderground v.1.15,2013-04-29 18:59:00,
2013-04-29 14:04:00,68.7,56.0,29.77,South,175,7.0,10.0,64,0.00,,,0.04,534,Wunderground v.1.15,2013-04-29 19:04:00,
2013-04-29 14:05:00,68.7,56.0,29.77,South,180,6.0,10.0,64,0.00,,,0.04,534,Wunderground v.1.15,2013-04-29 19:05:00,
2013-04-29 14:06:00,68.8,56.1,29.77,South,176,6.0,10.0,64,0.00,,,0.04,629,Wunderground v.1.15,2013-04-29 19:06:00,
2013-04-29 14:10:00,69.4,56.7,29.77,South,182,5.0,5.0,64,0.00,,,0.04,954,Wunderground v.1.15,2013-04-29 19:10:00,
2013-04-29 14:11:00,69.8,56.6,29.77,South,169,5.0,5.0,63,0.00,,,0.04,926,Wunderground v.1.15,2013-04-29 19:11:00,
2013-04-29 14:12:00,69.8,56.6,29.77,South,186,5.0,5.0,63,0.00,,,0.04,905,Wunderground v.1.15,2013-04-29 19:12:00,
2013-04-29 14:15:00,69.7,56.1,29.77,SW,223,6.0,9.0,62,0.00,,,0.04,900,Wunderground v.1.15,2013-04-29 19:15:00,
2013-04-29 14:17:00,69.7,56.1,29.77,South,190,5.0,9.0,62,0.00,,,0.04,904,Wunderground v.1.15,2013-04-29 19:17:00,
2013-04-29 14:19:00,70.0,56.4,29.77,South,178,5.0,9.0,62,0.00,,,0.04,336,Wunderground v.1.15,2013-04-29 19:19:00,
2013-04-29 14:21:00,69.8,55.7,29.76,SSW,209,6.0,9.0,61,0.00,,,0.04,933,Wunderground v.1.15,2013-04-29 19:21:00,
2013-04-29 14:22:00,69.7,55.6,29.76,SW,215,6.0,9.0,61,0.00,,,0.04,909,Wunderground v.1.15,2013-04-29 19:22:00,
2013-04-29 14:23:00,70.0,56.8,29.76,SE,144,6.0,9.0,63,0.00,,,0.04,896,Wunderground v.1.15,2013-04-29 19:23:00,
2013-04-29 14:24:00,70.1,55.6,29.76,South,190,6.0,9.0,60,0.00,,,0.04,893,Wunderground v.1.15,2013-04-29 19:24:00,
2013-04-29 14:27:00,70.2,56.1,29.76,South,188,6.0,9.0,61,0.00,,,0.04,417,Wunderground v.1.15,2013-04-29 19:27:00,
2013-04-29 14:28:00,70.2,56.1,29.76,South,175,6.0,9.0,61,0.00,,,0.04,417,Wunderground v.1.15,2013-04-29 19:28:00,
2013-04-29 14:31:00,70.5,55.9,29.76,SE,137,5.0,9.0,60,0.00,,,0.04,824,Wunderground v.1.15,2013-04-29 19:31:00,
2013-04-29 14:33:00,70.2,55.7,29.76,SSW,194,6.0,11.0,60,0.00,,,0.04,860,Wunderground v.1.15,2013-04-29 19:33:00,
2013-04-29 14:36:00,70.1,55.6,29.76,SSE,149,6.0,12.0,60,0.00,,,0.04,863,Wunderground v.1.15,2013-04-29 19:36:00,
2013-04-29 14:37:00,70.1,55.6,29.76,SE,140,6.0,12.0,60,0.00,,,0.04,846,Wunderground v.1.15,2013-04-29 19:37:00,
2013-04-29 14:38:00,70.2,56.1,29.76,South,180,6.0,12.0,61,0.00,,,0.04,891,Wunderground v.1.15,2013-04-29 19:38:00,
2013-04-29 14:41:00,70.4,55.4,29.76,SE,128,7.0,15.0,59,0.00,,,0.04,870,Wunderground v.1.15,2013-04-29 19:41:00,
2013-04-29 14:42:00,70.4,55.8,29.76,SSE,155,7.0,15.0,60,0.00,,,0.04,870,Wunderground v.1.15,2013-04-29 19:42:00,
2013-04-29 14:43:00,70.4,56.3,29.76,SE,126,7.0,15.0,61,0.00,,,0.04,359,Wunderground v.1.15,2013-04-29 19:43:00,
2013-04-29 14:46:00,70.4,56.3,29.76,South,180,8.0,15.0,61,0.00,,,0.04,863,Wunderground v.1.15,2013-04-29 19:46:00,
2013-04-29 14:48:00,70.2,55.7,29.76,SSW,196,8.0,15.0,60,0.00,,,0.04,812,Wunderground v.1.15,2013-04-29 19:48:00,
2013-04-29 14:49:00,70.2,56.1,29.76,SSE,152,8.0,15.0,61,0.00,,,0.04,793,Wunderground v.1.15,2013-04-29 19:49:00,
2013-04-29 14:51:00,69.9,55.8,29.76,SSE,158,8.0,10.0,61,0.00,,,0.04,789,Wunderground v.1.15,2013-04-29 19:51:00,
2013-04-29 14:52:00,69.6,55.6,29.76,SSE,157,9.0,10.0,61,0.00,,,0.04,784,Wunderground v.1.15,2013-04-29 19:52:00,
2013-04-29 14:53:00,69.6,55.6,29.76,SSE,151,9.0,10.0,61,0.00,,,0.04,772,Wunderground v.1.15,2013-04-29 19:53:00,
2013-04-29 14:54:00,69.5,55.5,29.75,SSE,153,8.0,10.0,61,0.00,,,0.04,782,Wunderground v.1.15,2013-04-29 19:54:00,
2013-04-29 14:56:00,69.5,55.9,29.75,SSW,194,8.0,11.0,62,0.00,,,0.04,777,Wunderground v.1.15,2013-04-29 19:56:00,
2013-04-29 14:58:00,70.1,56.0,29.75,SSW,195,8.0,12.0,61,0.00,,,0.04,773,Wunderground v.1.15,2013-04-29 19:58:00,
2013-04-29 15:00:00,70.1,56.0,29.75,South,171,8.0,8.0,61,0.00,,,0.04,765,Wunderground v.1.15,2013-04-29 20:00:00,
2013-04-29 15:02:00,69.9,55.4,29.75,SSE,161,7.0,8.0,60,0.00,,,0.04,772,Wunderground v.1.15,2013-04-29 20:02:00,
2013-04-29 15:04:00,69.6,55.6,29.75,SE,138,8.0,8.0,61,0.00,,,0.04,768,Wunderground v.1.15,2013-04-29 20:04:00,
2013-04-29 15:05:00,69.7,56.1,29.75,ESE,116,8.0,8.0,62,0.00,,,0.04,772,Wunderground v.1.15,2013-04-29 20:05:00,
2013-04-29 15:07:00,70.2,56.1,29.75,SSE,152,7.0,8.0,61,0.00,,,0.04,784,Wunderground v.1.15,2013-04-29 20:07:00,
2013-04-29 15:08:00,70.3,56.2,29.75,SSE,148,7.0,8.0,61,0.00,,,0.04,802,Wunderground v.1.15,2013-04-29 20:08:00,
2013-04-29 15:12:00,69.5,55.0,29.75,SE,140,7.0,15.0,60,0.00,,,0.04,835,Wunderground v.1.15,2013-04-29 20:12:00,
2013-04-29 15:13:00,69.2,54.7,29.75,SSE,164,7.0,15.0,60,0.00,,,0.04,506,Wunderground v.1.15,2013-04-29 20:13:00,
2013-04-29 15:15:00,68.9,54.9,29.75,SSE,167,7.0,15.0,61,0.00,,,0.04,520,Wunderground v.1.15,2013-04-29 20:15:00,
2013-04-29 15:18:00,69.0,55.0,29.75,South,173,7.0,15.0,61,0.00,,,0.04,831,Wunderground v.1.15,2013-04-29 20:18:00,
2013-04-29 15:19:00,69.2,55.6,29.75,SE,132,7.0,15.0,62,0.00,,,0.04,847,Wunderground v.1.15,2013-04-29 20:19:00,
2013-04-29 15:20:00,69.3,55.3,29.75,SE,145,7.0,9.0,61,0.00,,,0.04,835,Wunderground v.1.15,2013-04-29 20:20:00,
2013-04-29 15:21:00,69.5,55.5,29.75,SSE,164,7.0,10.0,61,0.00,,,0.04,747,Wunderground v.1.15,2013-04-29 20:21:00,
2013-04-29 15:24:00,69.0,55.4,29.75,SE,138,6.0,10.0,62,0.00,,,0.04,258,Wunderground v.1.15,2013-04-29 20:24:00,
2013-04-29 15:25:00,68.8,54.8,29.75,SSE,155,6.0,11.0,61,0.00,,,0.04,272,Wunderground v.1.15,2013-04-29 20:25:00,
2013-04-29 15:26:00,68.6,54.6,29.75,SSE,149,6.0,11.0,61,0.00,,,0.04,272,Wunderground v.1.15,2013-04-29 20:26:00,
2013-04-29 15:29:00,68.0,54.5,29.75,SE,145,7.0,12.0,62,0.00,,,0.04,272,Wunderground v.1.15,2013-04-29 20:29:00,
2013-04-29 15:30:00,67.9,54.8,29.75,SE,143,7.0,12.0,63,0.00,,,0.04,793,Wunderground v.1.15,2013-04-29 20:30:00,
2013-04-29 15:31:00,67.7,54.2,29.75,SSE,153,8.0,12.0,62,0.00,,,0.04,793,Wunderground v.1.15,2013-04-29 20:31:00,
2013-04-29 15:32:00,67.6,54.6,29.75,SSE,163,8.0,12.0,63,0.00,,,0.04,844,Wunderground v.1.15,2013-04-29 20:32:00,
2013-04-29 15:35:00,67.8,54.7,29.75,SW,217,9.0,12.0,63,0.00,,,0.04,793,Wunderground v.1.15,2013-04-29 20:35:00,
2013-04-29 15:36:00,67.8,55.2,29.75,South,186,9.0,12.0,64,0.00,,,0.04,793,Wunderground v.1.15,2013-04-29 20:36:00,
2013-04-29 15:41:00,67.3,54.7,29.75,SSE,149,8.0,8.0,64,0.00,,,0.04,443,Wunderground v.1.15,2013-04-29 20:41:00,
2013-04-29 15:42:00,67.4,55.6,29.75,South,188,7.0,8.0,66,0.00,,,0.04,724,Wunderground v.1.15,2013-04-29 20:42:00,
2013-04-29 15:43:00,67.9,56.1,29.75,SSE,161,7.0,8.0,66,0.00,,,0.04,715,Wunderground v.1.15,2013-04-29 20:43:00,
2013-04-29 15:46:00,68.1,55.9,29.75,South,175,6.0,8.0,65,0.00,,,0.04,694,Wunderground v.1.15,2013-04-29 20:46:00,
2013-04-29 15:48:00,68.2,55.6,29.75,SSE,161,6.0,10.0,64,0.00,,,0.04,708,Wunderground v.1.15,2013-04-29 20:48:00,
2013-04-29 15:49:00,68.0,54.9,29.75,SSE,148,6.0,17.0,63,0.00,,,0.04,707,Wunderground v.1.15,2013-04-29 20:49:00,
2013-04-29 15:50:00,67.7,55.1,29.75,SE,132,7.0,14.0,64,0.00,,,0.04,700,Wunderground v.1.15,2013-04-29 20:50:00,
2013-04-29 15:53:00,67.6,55.4,29.75,South,173,7.0,14.0,65,0.00,,,0.04,687,Wunderground v.1.15,2013-04-29 20:53:00,
2013-04-29 15:55:00,67.8,55.6,29.75,SE,135,6.0,14.0,65,0.00,,,0.04,687,Wunderground v.1.15,2013-04-29 20:55:00,
2013-04-29 15:56:00,67.8,55.6,29.75,SSE,149,6.0,14.0,65,0.00,,,0.04,687,Wunderground v.1.15,2013-04-29 20:56:00,
2013-04-29 15:57:00,67.8,55.6,29.75,SSE,167,6.0,14.0,65,0.00,,,0.04,687,Wunderground v.1.15,2013-04-29 20:57:00,
2013-04-29 15:59:00,67.5,54.5,29.75,SSW,194,5.0,14.0,63,0.00,,,0.04,243,Wunderground v.1.15,2013-04-29 20:59:00,
2013-04-29 16:00:00,67.3,54.7,29.75,South,183,4.0,4.0,64,0.00,,,0.04,229,Wunderground v.1.15,2013-04-29 21:00:00,
2013-04-29 16:02:00,67.1,54.9,29.75,SSE,158,3.0,5.0,65,0.00,,,0.04,246,Wunderground v.1.15,2013-04-29 21:02:00,
2013-04-29 16:05:00,67.1,54.9,29.75,East,101,4.0,7.0,65,0.00,,,0.04,766,Wunderground v.1.15,2013-04-29 21:05:00,
2013-04-29 16:06:00,67.2,55.0,29.75,SE,131,4.0,7.0,65,0.00,,,0.04,754,Wunderground v.1.15,2013-04-29 21:06:00,
2013-04-29 16:07:00,67.5,55.3,29.75,East,89,4.0,7.0,65,0.00,,,0.04,714,Wunderground v.1.15,2013-04-29 21:07:00,
2013-04-29 16:10:00,67.9,55.3,29.75,SSE,152,4.0,4.0,64,0.00,,,0.04,668,Wunderground v.1.15,2013-04-29 21:10:00,
2013-04-29 16:11:00,68.1,55.9,29.75,SSE,151,4.0,4.0,65,0.00,,,0.04,659,Wunderground v.1.15,2013-04-29 21:11:00,
2013-04-29 16:13:00,68.3,55.6,29.75,SE,142,5.0,10.0,64,0.00,,,0.04,640,Wunderground v.1.15,2013-04-29 21:13:00,
2013-04-29 16:16:00,67.7,54.6,29.75,SSE,148,6.0,10.0,63,0.00,,,0.04,649,Wunderground v.1.15,2013-04-29 21:16:00,
2013-04-29 16:17:00,67.5,54.5,29.75,SE,136,6.0,10.0,63,0.00,,,0.04,649,Wunderground v.1.15,2013-04-29 21:17:00,
2013-04-29 16:21:00,67.5,54.9,29.75,SSE,164,8.0,14.0,64,0.00,,,0.04,295,Wunderground v.1.15,2013-04-29 21:21:00,
2013-04-29 16:24:00,67.4,54.4,29.75,South,169,9.0,14.0,63,0.00,,,0.04,262,Wunderground v.1.15,2013-04-29 21:24:00,
2013-04-29 16:25:00,67.4,54.4,29.74,SSE,168,9.0,14.0,63,0.00,,,0.04,659,Wunderground v.1.15,2013-04-29 21:25:00,
2013-04-29 16:29:00,67.7,54.6,29.75,SSE,167,8.0,14.0,63,0.00,,,0.04,673,Wunderground v.1.15,2013-04-29 21:29:00,
2013-04-29 16:30:00,68.0,55.8,29.75,ESE,121,7.0,7.0,65,0.00,,,0.04,381,Wunderground v.1.15,2013-04-29 21:30:00,
2013-04-29 16:31:00,68.2,54.7,29.75,SSW,193,7.0,7.0,62,0.00,,,0.04,348,Wunderground v.1.15,2013-04-29 21:31:00,
2013-04-29 16:32:00,68.2,54.2,29.75,South,169,7.0,7.0,61,0.00,,,0.04,325,Wunderground v.1.15,2013-04-29 21:32:00,
2013-04-29 16:34:00,67.8,54.3,29.75,ESE,118,6.0,8.0,62,0.00,,,0.04,341,Wunderground v.1.15,2013-04-29 21:34:00,
2013-04-29 16:35:00,67.6,54.1,29.75,SSW,192,7.0,8.0,62,0.00,,,0.04,359,Wunderground v.1.15,2013-04-29 21:35:00,
2013-04-29 16:37:00,67.3,54.3,29.75,SSE,149,6.0,8.0,63,0.00,,,0.04,359,Wunderground v.1.15,2013-04-29 21:37:00,
2013-04-29 16:39:00,67.3,54.3,29.75,SSE,163,6.0,18.0,63,0.00,,,0.04,359,Wunderground v.1.15,2013-04-29 21:39:00,
2013-04-29 16:41:00,67.0,54.4,29.74,SSE,152,7.0,11.0,64,0.00,,,0.04,359,Wunderground v.1.15,2013-04-29 21:41:00,
2013-04-29 16:42:00,67.0,54.4,29.75,SSE,151,7.0,11.0,64,0.00,,,0.04,359,Wunderground v.1.15,2013-04-29 21:42:00,
2013-04-29 16:45:00,67.1,54.9,29.74,ESE,111,8.0,11.0,65,0.00,,,0.04,626,Wunderground v.1.15,2013-04-29 21:45:00,
2013-04-29 16:46:00,67.5,54.9,29.74,SE,128,7.0,11.0,64,0.00,,,0.04,589,Wunderground v.1.15,2013-04-29 21:46:00,
2013-04-29 16:48:00,67.6,55.0,29.74,ESE,115,8.0,12.0,64,0.00,,,0.04,522,Wunderground v.1.15,2013-04-29 21:48:00,
2013-04-29 16:49:00,67.6,55.0,29.74,SSE,155,8.0,12.0,64,0.00,,,0.04,515,Wunderground v.1.15,2013-04-29 21:49:00,
2013-04-29 16:50:00,67.5,54.9,29.74,SE,134,7.0,7.0,64,0.00,,,0.04,508,Wunderground v.1.15,2013-04-29 21:50:00,
2013-04-29 16:51:00,67.3,54.7,29.74,SE,132,7.0,7.0,64,0.00,,,0.04,496,Wunderground v.1.15,2013-04-29 21:51:00,
2013-04-29 16:53:00,67.2,54.6,29.74,SE,140,6.0,11.0,64,0.00,,,0.04,482,Wunderground v.1.15,2013-04-29 21:53:00,
2013-04-29 16:55:00,67.0,54.4,29.74,South,171,6.0,11.0,64,0.00,,,0.04,478,Wunderground v.1.15,2013-04-29 21:55:00,
2013-04-29 16:57:00,67.1,54.5,29.74,SE,136,7.0,11.0,64,0.00,,,0.04,466,Wunderground v.1.15,2013-04-29 21:57:00,
2013-04-29 17:00:00,67.5,54.9,29.74,SSE,167,6.0,7.0,64,0.00,,,0.04,457,Wunderground v.1.15,2013-04-29 22:00:00,
2013-04-29 17:01:00,67.7,54.6,29.74,SE,135,6.0,14.0,63,0.00,,,0.04,454,Wunderground v.1.15,2013-04-29 22:01:00,
2013-04-29 17:02:00,67.7,54.6,29.74,South,173,7.0,14.0,63,0.00,,,0.04,452,Wunderground v.1.15,2013-04-29 22:02:00,
2013-04-29 17:04:00,68.0,55.4,29.73,SE,142,6.0,14.0,64,0.00,,,0.04,445,Wunderground v.1.15,2013-04-29 22:04:00,
2013-04-29 17:05:00,68.1,55.5,29.73,ESE,121,6.0,14.0,64,0.00,,,0.04,441,Wunderground v.1.15,2013-04-29 22:05:00,
2013-04-29 17:07:00,68.3,55.6,29.73,SE,126,6.0,14.0,64,0.00,,,0.04,436,Wunderground v.1.15,2013-04-29 22:07:00,
2013-04-29 17:09:00,68.2,55.1,29.73,SE,144,6.0,14.0,63,0.00,,,0.04,429,Wunderground v.1.15,2013-04-29 22:09:00,
2013-04-29 17:12:00,68.5,55.0,29.73,East,94,5.0,9.0,62,0.00,,,0.04,427,Wunderground v.1.15,2013-04-29 22:12:00,
2013-04-29 17:14:00,68.7,55.6,29.73,SE,134,5.0,9.0,63,0.00,,,0.04,415,Wunderground v.1.15,2013-04-29 22:14:00,
2013-04-29 17:17:00,68.6,55.1,29.73,SE,131,6.0,9.0,62,0.00,,,0.04,410,Wunderground v.1.15,2013-04-29 22:17:00,
2013-04-29 17:19:00,68.4,55.3,29.73,SSE,150,6.0,9.0,63,0.00,,,0.04,406,Wunderground v.1.15,2013-04-29 22:19:00,
2013-04-29 17:20:00,68.4,55.3,29.73,SSE,158,6.0,6.0,63,0.00,,,0.04,397,Wunderground v.1.15,2013-04-29 22:20:00,
2013-04-29 17:21:00,68.4,55.3,29.73,SE,143,6.0,6.0,63,0.00,,,0.04,394,Wunderground v.1.15,2013-04-29 22:21:00,
2013-04-29 17:24:00,68.7,55.2,29.73,ESE,123,6.0,9.0,62,0.00,,,0.04,385,Wunderground v.1.15,2013-04-29 22:24:00,
2013-04-29 17:25:00,68.7,55.2,29.73,SE,136,6.0,9.0,62,0.00,,,0.04,383,Wunderground v.1.15,2013-04-29 22:25:00,
2013-04-29 17:28:00,68.7,54.7,29.73,East,94,6.0,9.0,61,0.00,,,0.04,378,Wunderground v.1.15,2013-04-29 22:28:00,
2013-04-29 17:31:00,68.8,55.2,29.73,South,187,6.0,8.0,62,0.00,,,0.04,366,Wunderground v.1.15,2013-04-29 22:31:00,
2013-04-29 17:35:00,69.4,54.9,29.73,SSE,155,5.0,8.0,60,0.00,,,0.04,345,Wunderground v.1.15,2013-04-29 22:35:00,
2013-04-29 17:36:00,69.3,55.3,29.73,SE,141,6.0,13.0,61,0.00,,,0.04,343,Wunderground v.1.15,2013-04-29 22:36:00,
2013-04-29 17:37:00,69.2,54.7,29.73,South,173,6.0,13.0,60,0.00,,,0.04,343,Wunderground v.1.15,2013-04-29 22:37:00,
2013-04-29 17:39:00,69.1,55.1,29.73,SSE,149,6.0,13.0,61,0.00,,,0.04,339,Wunderground v.1.15,2013-04-29 22:39:00,
2013-04-29 17:40:00,69.0,55.0,29.73,SSE,165,6.0,6.0,61,0.00,,,0.04,329,Wunderground v.1.15,2013-04-29 22:40:00,
2013-04-29 17:41:00,69.0,55.0,29.73,South,178,6.0,6.0,61,0.00,,,0.04,329,Wunderground v.1.15,2013-04-29 22:41:00,
2013-04-29 17:42:00,69.0,55.0,29.73,South,186,6.0,6.0,61,0.00,,,0.04,330,Wunderground v.1.15,2013-04-29 22:42:00,
2013-04-29 17:43:00,69.0,54.5,29.73,SE,145,7.0,7.0,60,0.00,,,0.04,320,Wunderground v.1.15,2013-04-29 22:43:00,
2013-04-29 17:47:00,69.5,55.5,29.72,ESE,117,4.0,7.0,61,0.00,,,0.04,91,Wunderground v.1.15,2013-04-29 22:47:00,
2013-04-29 17:49:00,69.3,54.8,29.72,SSE,168,4.0,8.0,60,0.00,,,0.04,81,Wunderground v.1.15,2013-04-29 22:49:00,
2013-04-29 17:50:00,69.2,54.7,29.72,SE,134,4.0,5.0,60,0.00,,,0.04,95,Wunderground v.1.15,2013-04-29 22:50:00,
2013-04-29 17:51:00,69.2,55.2,29.72,SE,138,4.0,9.0,61,0.00,,,0.04,95,Wunderground v.1.15,2013-04-29 22:51:00,
2013-04-29 17:52:00,69.0,54.5,29.73,ESE,117,4.0,12.0,60,0.00,,,0.04,149,Wunderground v.1.15,2013-04-29 22:52:00,
2013-04-29 17:54:00,68.9,54.9,29.72,SSE,149,4.0,12.0,61,0.00,,,0.04,114,Wunderground v.1.15,2013-04-29 22:54:00,
2013-04-29 17:56:00,68.7,54.7,29.72,SE,128,5.0,12.0,61,0.00,,,0.04,127,Wunderground v.1.15,2013-04-29 22:56:00,
2013-04-29 17:57:00,68.7,55.2,29.72,South,171,5.0,12.0,62,0.00,,,0.04,139,Wunderground v.1.15,2013-04-29 22:57:00,
2013-04-29 17:58:00,68.7,55.2,29.72,ESE,117,5.0,12.0,62,0.00,,,0.04,146,Wunderground v.1.15,2013-04-29 22:58:00,
2013-04-29 18:02:00,68.8,55.2,29.72,ESE,105,4.0,8.0,62,0.00,,,0.04,171,Wunderground v.1.15,2013-04-29 23:02:00,
2013-04-29 18:03:00,68.8,55.2,29.72,East,86,3.0,8.0,62,0.00,,,0.04,171,Wunderground v.1.15,2013-04-29 23:03:00,
2013-04-29 18:05:00,68.9,55.3,29.72,ESE,123,3.0,8.0,62,0.00,,,0.04,169,Wunderground v.1.15,2013-04-29 23:05:00,
2013-04-29 18:06:00,68.9,55.3,29.72,SE,125,3.0,8.0,62,0.00,,,0.04,214,Wunderground v.1.15,2013-04-29 23:06:00,
2013-04-29 18:10:00,68.8,55.2,29.72,ESE,123,4.0,5.0,62,0.00,,,0.04,174,Wunderground v.1.15,2013-04-29 23:10:00,
2013-04-29 18:12:00,68.8,55.7,29.72,ESE,115,4.0,5.0,63,0.00,,,0.04,151,Wunderground v.1.15,2013-04-29 23:12:00,
2013-04-29 18:13:00,69.0,55.9,29.72,ESE,119,4.0,5.0,63,0.00,,,0.04,127,Wunderground v.1.15,2013-04-29 23:13:00,
2013-04-29 18:14:00,69.0,55.4,29.72,East,81,4.0,5.0,62,0.00,,,0.04,121,Wunderground v.1.15,2013-04-29 23:14:00,
2013-04-29 18:16:00,69.0,55.4,29.72,ENE,67,4.0,7.0,62,0.00,,,0.04,118,Wunderground v.1.15,2013-04-29 23:16:00,
2013-04-29 18:17:00,69.0,55.4,29.72,SE,138,4.0,7.0,62,0.00,,,0.04,118,Wunderground v.1.15,2013-04-29 23:17:00,
2013-04-29 18:20:00,68.9,55.8,29.72,East,94,3.0,3.0,63,0.00,,,0.04,120,Wunderground v.1.15,2013-04-29 23:20:00,
2013-04-29 18:22:00,68.9,55.3,29.72,ESE,114,3.0,3.0,62,0.00,,,0.04,120,Wunderground v.1.15,2013-04-29 23:22:00,
2013-04-29 18:23:00,68.8,55.2,29.72,SE,130,3.0,3.0,62,0.00,,,0.04,120,Wunderground v.1.15,2013-04-29 23:23:00,
2013-04-29 18:26:00,68.8,55.2,29.72,SE,132,2.0,3.0,62,0.00,,,0.04,113,Wunderground v.1.15,2013-04-29 23:26:00,
2013-04-29 18:27:00,68.8,55.7,29.72,SE,132,2.0,3.0,63,0.00,,,0.04,107,Wunderground v.1.15,2013-04-29 23:27:00,
2013-04-29 18:31:00,69.0,55.4,29.72,ESE,116,1.0,1.0,62,0.00,,,0.04,93,Wunderground v.1.15,2013-04-29 23:31:00,
2013-04-29 18:35:00,68.8,55.2,29.72,ESE,118,1.0,5.0,62,0.00,,,0.04,104,Wunderground v.1.15,2013-04-29 23:35:00,
2013-04-29 18:36:00,68.8,55.2,29.72,SE,134,2.0,6.0,62,0.00,,,0.04,105,Wunderground v.1.15,2013-04-29 23:36:00,
2013-04-29 18:38:00,68.7,55.2,29.72,ESE,113,2.0,6.0,62,0.00,,,0.04,125,Wunderground v.1.15,2013-04-29 23:38:00,
2013-04-29 18:42:00,68.8,55.2,29.72,East,86,4.0,7.0,62,0.00,,,0.04,109,Wunderground v.1.15,2013-04-29 23:42:00,
2013-04-29 18:43:00,68.8,55.2,29.72,East,81,4.0,7.0,62,0.00,,,0.04,105,Wunderground v.1.15,2013-04-29 23:43:00,
2013-04-29 18:44:00,68.8,55.2,29.71,ESE,111,4.0,7.0,62,0.00,,,0.04,116,Wunderground v.1.15,2013-04-29 23:44:00,
2013-04-29 18:46:00,68.8,55.2,29.71,South,171,3.0,7.0,62,0.00,,,0.04,98,Wunderground v.1.15,2013-04-29 23:46:00,
2013-04-29 18:47:00,68.8,55.2,29.71,NE,56,3.0,7.0,62,0.00,,,0.04,97,Wunderground v.1.15,2013-04-29 23:47:00,
2013-04-29 18:48:00,68.8,55.2,29.71,East,101,3.0,7.0,62,0.00,,,0.04,86,Wunderground v.1.15,2013-04-29 23:48:00,
2013-04-29 18:51:00,68.8,54.8,29.71,ESE,116,3.0,4.0,61,0.00,,,0.04,77,Wunderground v.1.15,2013-04-29 23:51:00,
2013-04-29 18:52:00,68.8,54.8,29.71,SSE,150,3.0,5.0,61,0.00,,,0.04,72,Wunderground v.1.15,2013-04-29 23:52:00,
2013-04-29 18:54:00,68.8,54.8,29.71,ESE,114,3.0,5.0,61,0.00,,,0.04,63,Wunderground v.1.15,2013-04-29 23:54:00,
2013-04-29 18:57:00,68.7,55.2,29.71,SE,130,3.0,5.0,62,0.00,,,0.04,58,Wunderground v.1.15,2013-04-29 23:57:00,
2013-04-29 18:59:00,68.6,55.1,29.71,SE,132,3.0,7.0,62,0.00,,,0.04,56,Wunderground v.1.15,2013-04-29 23:59:00,
2013-04-29 19:01:00,68.6,54.6,29.71,ESE,120,3.0,4.0,61,0.00,,,0.04,53,Wunderground v.1.15,2013-04-30 00:01:00,
2013-04-29 19:03:00,68.6,55.1,29.71,ESE,112,3.0,6.0,62,0.00,,,0.04,49,Wunderground v.1.15,2013-04-30 00:03:00,
2013-04-29 19:04:00,68.6,55.1,29.71,ESE,112,3.0,6.0,62,0.00,,,0.04,47,Wunderground v.1.15,2013-04-30 00:04:00,
2013-04-29 19:05:00,68.6,55.1,29.71,ESE,120,3.0,6.0,62,0.00,,,0.04,47,Wunderground v.1.15,2013-04-30 00:05:00,
2013-04-29 19:06:00,68.6,54.6,29.71,SE,142,3.0,6.0,61,0.00,,,0.04,49,Wunderground v.1.15,2013-04-30 00:06:00,
2013-04-29 19:09:00,68.5,55.0,29.71,East,93,3.0,6.0,62,0.00,,,0.04,53,Wunderground v.1.15,2013-04-30 00:09:00,
2013-04-29 19:10:00,68.5,55.0,29.71,ENE,77,2.0,4.0,62,0.00,,,0.04,53,Wunderground v.1.15,2013-04-30 00:10:00,
2013-04-29 19:11:00,68.5,55.0,29.71,ENE,65,2.0,4.0,62,0.00,,,0.04,54,Wunderground v.1.15,2013-04-30 00:11:00,
2013-04-29 19:15:00,68.5,55.0,29.71,ESE,103,2.0,4.0,62,0.00,,,0.04,54,Wunderground v.1.15,2013-04-30 00:15:00,
2013-04-29 19:16:00,68.4,54.9,29.71,ESE,103,2.0,4.0,62,0.00,,,0.04,56,Wunderground v.1.15,2013-04-30 00:16:00,
2013-04-29 19:17:00,68.4,54.9,29.71,ESE,103,1.0,4.0,62,0.00,,,0.04,58,Wunderground v.1.15,2013-04-30 00:17:00,
2013-04-29 19:20:00,68.4,54.9,29.71,ENE,63,1.0,3.0,62,0.00,,,0.04,60,Wunderground v.1.15,2013-04-30 00:20:00,
2013-04-29 19:22:00,68.5,55.0,29.71,ESE,109,1.0,3.0,62,0.00,,,0.04,62,Wunderground v.1.15,2013-04-30 00:22:00,
2013-04-29 19:24:00,68.5,55.0,29.71,ENE,77,1.0,3.0,62,0.00,,,0.04,58,Wunderground v.1.15,2013-04-30 00:24:00,
2013-04-29 19:27:00,68.5,55.0,29.71,East,88,1.0,3.0,62,0.00,,,0.04,47,Wunderground v.1.15,2013-04-30 00:27:00,
2013-04-29 19:29:00,68.5,55.0,29.71,East,80,1.0,3.0,62,0.00,,,0.04,40,Wunderground v.1.15,2013-04-30 00:29:00,
2013-04-29 19:33:00,68.4,54.9,29.71,ESE,105,1.0,5.0,62,0.00,,,0.04,32,Wunderground v.1.15,2013-04-30 00:33:00,
2013-04-29 19:34:00,68.3,54.8,29.71,East,85,1.0,5.0,62,0.00,,,0.04,30,Wunderground v.1.15,2013-04-30 00:34:00,
2013-04-29 19:35:00,68.3,54.8,29.71,East,100,1.0,5.0,62,0.00,,,0.04,26,Wunderground v.1.15,2013-04-30 00:35:00,
2013-04-29 19:36:00,68.3,54.8,29.71,ESE,112,2.0,5.0,62,0.00,,,0.04,25,Wunderground v.1.15,2013-04-30 00:36:00,
2013-04-29 19:40:00,68.0,54.5,29.71,East,84,1.0,1.0,62,0.00,,,0.04,19,Wunderground v.1.15,2013-04-30 00:40:00,
2013-04-29 19:41:00,68.0,54.5,29.71,East,84,1.0,1.0,62,0.00,,,0.04,18,Wunderground v.1.15,2013-04-30 00:41:00,
2013-04-29 19:42:00,68.0,54.5,29.71,East,84,1.0,1.0,62,0.00,,,0.04,18,Wunderground v.1.15,2013-04-30 00:42:00,
2013-04-29 19:46:00,67.8,54.7,29.71,East,84,0.0,1.0,63,0.00,,,0.04,16,Wunderground v.1.15,2013-04-30 00:46:00,
2013-04-29 19:49:00,67.7,54.2,29.71,NE,50,0.0,3.0,62,0.00,,,0.04,12,Wunderground v.1.15,2013-04-30 00:49:00,
2013-04-29 19:52:00,67.6,54.6,29.71,NE,50,0.0,0.0,63,0.00,,,0.04,7,Wunderground v.1.15,2013-04-30 00:52:00,
2013-04-29 19:53:00,67.5,54.5,29.71,NE,50,0.0,0.0,63,0.00,,,0.04,5,Wunderground v.1.15,2013-04-30 00:53:00,
2013-04-29 19:54:00,67.3,54.7,29.71,NE,50,0.0,1.0,64,0.00,,,0.04,5,Wunderground v.1.15,2013-04-30 00:54:00,
2013-04-29 19:57:00,67.1,54.9,29.71,NE,50,0.0,1.0,65,0.00,,,0.04,5,Wunderground v.1.15,2013-04-30 00:57:00,
2013-04-29 19:58:00,66.9,54.3,29.71,NE,50,0.0,1.0,64,0.00,,,0.04,0,Wunderground v.1.15,2013-04-30 00:58:00,
2013-04-29 20:00:00,66.6,54.5,29.71,NE,50,0.0,0.0,65,0.00,,,0.04,0,Wunderground v.1.15,2013-04-30 01:00:00,
2013-04-29 20:02:00,66.3,54.6,29.71,NE,50,0.0,0.0,66,0.00,,,0.04,0,Wunderground v.1.15,2013-04-30 01:02:00,
2013-04-29 20:04:00,66.0,54.3,29.71,NE,50,0.0,0.0,66,0.00,,,0.04,0,Wunderground v.1.15,2013-04-30 01:04:00,
2013-04-29 20:06:00,65.6,54.3,29.70,NE,50,0.0,0.0,67,0.00,,,0.04,0,Wunderground v.1.15,2013-04-30 01:06:00,
2013-04-29 20:08:00,65.6,54.3,29.71,East,96,0.0,4.0,67,0.00,,,0.04,0,Wunderground v.1.15,2013-04-30 01:08:00,
2013-04-29 20:09:00,65.6,54.3,29.70,East,96,0.0,4.0,67,0.00,,,0.04,0,Wunderground v.1.15,2013-04-30 01:09:00,
2013-04-29 20:11:00,65.5,54.2,29.70,NE,55,0.0,2.0,67,0.00,,,0.04,0,Wunderground v.1.15,2013-04-30 01:11:00,
2013-04-29 20:12:00,65.4,54.2,29.70,NE,55,0.0,2.0,67,0.00,,,0.04,0,Wunderground v.1.15,2013-04-30 01:12:00,
2013-04-29 20:13:00,65.3,54.5,29.70,NE,55,0.0,2.0,68,0.00,,,0.04,0,Wunderground v.1.15,2013-04-30 01:13:00,
2013-04-29 20:14:00,65.2,54.4,29.70,NE,55,0.0,2.0,68,0.00,,,0.04,0,Wunderground v.1.15,2013-04-30 01:14:00,
2013-04-29 20:15:00,65.0,54.2,29.70,NE,55,0.0,2.0,68,0.00,,,0.04,0,Wunderground v.1.15,2013-04-30 01:15:00,
2013-04-29 20:16:00,64.9,54.1,29.71,NE,55,0.0,2.0,68,0.00,,,0.04,0,Wunderground v.1.15,2013-04-30 01:16:00,
2013-04-29 20:21:00,64.6,54.2,29.71,NE,55,0.0,0.0,69,0.00,,,0.04,0,Wunderground v.1.15,2013-04-30 01:21:00,
2013-04-29 20:22:00,64.6,54.2,29.71,NE,55,0.0,0.0,69,0.00,,,0.04,0,Wunderground v.1.15,2013-04-30 01:22:00,
2013-04-29 20:24:00,64.5,54.1,29.71,NE,55,0.0,0.0,69,0.00,,,0.04,0,Wunderground v.1.15,2013-04-30 01:24:00,
2013-04-29 20:27:00,64.2,54.2,29.71,NE,55,0.0,0.0,70,0.00,,,0.04,0,Wunderground v.1.15,2013-04-30 01:27:00,
2013-04-29 20:29:00,64.1,54.1,29.71,NE,55,0.0,0.0,70,0.00,,,0.04,0,Wunderground v.1.15,2013-04-30 01:29:00,
2013-04-29 20:30:00,64.1,54.1,29.71,NE,55,0.0,0.0,70,0.00,,,0.04,0,Wunderground v.1.15,2013-04-30 01:30:00,
2013-04-29 20:31:00,64.1,54.1,29.71,NE,55,0.0,0.0,70,0.00,,,0.04,0,Wunderground v.1.15,2013-04-30 01:31:00,
2013-04-29 20:32:00,64.0,54.4,29.71,NE,55,0.0,0.0,71,0.00,,,0.04,0,Wunderground v.1.15,2013-04-30 01:32:00,
2013-04-29 20:36:00,63.4,53.8,29.71,NE,55,0.0,0.0,71,0.00,,,0.04,0,Wunderground v.1.15,2013-04-30 01:36:00,
2013-04-29 20:37:00,63.3,54.1,29.71,NE,55,0.0,0.0,72,0.00,,,0.04,0,Wunderground v.1.15,2013-04-30 01:37:00,
2013-04-29 20:39:00,63.2,54.0,29.71,NE,55,0.0,0.0,72,0.00,,,0.04,0,Wunderground v.1.15,2013-04-30 01:39:00,
2013-04-29 20:41:00,63.1,53.9,29.71,NE,55,0.0,0.0,72,0.00,,,0.04,0,Wunderground v.1.15,2013-04-30 01:41:00,
2013-04-29 20:42:00,62.8,54.0,29.71,NE,55,0.0,0.0,73,0.00,,,0.04,0,Wunderground v.1.15,2013-04-30 01:42:00,
2013-04-29 20:44:00,62.6,53.8,29.71,NE,55,0.0,0.0,73,0.00,,,0.04,0,Wunderground v.1.15,2013-04-30 01:44:00,
2013-04-29 20:45:00,62.4,54.0,29.71,NE,55,0.0,0.0,74,0.00,,,0.04,0,Wunderground v.1.15,2013-04-30 01:45:00,
2013-04-29 20:46:00,62.3,53.9,29.71,NE,55,0.0,0.0,74,0.00,,,0.04,0,Wunderground v.1.15,2013-04-30 01:46:00,
2013-04-29 20:48:00,62.2,53.8,29.71,NE,55,0.0,0.0,74,0.00,,,0.04,0,Wunderground v.1.15,2013-04-30 01:48:00,
2013-04-29 20:52:00,62.1,54.1,29.72,NE,55,0.0,0.0,75,0.00,,,0.04,0,Wunderground v.1.15,2013-04-30 01:52:00,
2013-04-29 20:53:00,62.0,54.0,29.72,NE,55,0.0,0.0,75,0.00,,,0.04,0,Wunderground v.1.15,2013-04-30 01:53:00,
2013-04-29 20:55:00,61.8,53.8,29.72,NE,55,0.0,0.0,75,0.00,,,0.04,0,Wunderground v.1.15,2013-04-30 01:55:00,
2013-04-29 20:57:00,61.6,53.6,29.72,NE,55,0.0,0.0,75,0.00,,,0.04,0,Wunderground v.1.15,2013-04-30 01:57:00,
2013-04-29 21:01:00,61.2,53.2,29.71,NE,55,0.0,0.0,75,0.00,,,0.04,0,Wunderground v.1.15,2013-04-30 02:01:00,
2013-04-29 21:02:00,61.0,53.4,29.71,NE,55,0.0,0.0,76,0.00,,,0.04,0,Wunderground v.1.15,2013-04-30 02:02:00,
2013-04-29 21:05:00,60.5,53.3,29.71,NE,55,0.0,3.0,77,0.00,,,0.04,0,Wunderground v.1.15,2013-04-30 02:05:00,
2013-04-29 21:07:00,60.4,53.2,29.71,NE,55,0.0,3.0,77,0.00,,,0.04,0,Wunderground v.1.15,2013-04-30 02:07:00,
2013-04-29 21:08:00,60.3,53.4,29.71,NE,55,1.0,3.0,78,0.00,,,0.04,0,Wunderground v.1.15,2013-04-30 02:08:00,
2013-04-29 21:09:00,60.2,53.3,29.71,NE,55,1.0,3.0,78,0.00,,,0.04,0,Wunderground v.1.15,2013-04-30 02:09:00,
2013-04-29 21:11:00,60.2,53.3,29.71,NE,55,1.0,1.0,78,0.00,,,0.04,0,Wunderground v.1.15,2013-04-30 02:11:00,
2013-04-29 21:12:00,60.2,53.3,29.71,NE,55,1.0,1.0,78,0.00,,,0.04,0,Wunderground v.1.15,2013-04-30 02:12:00,
2013-04-29 21:13:00,60.1,53.6,29.71,NE,55,0.0,1.0,79,0.00,,,0.04,0,Wunderground v.1.15,2013-04-30 02:13:00,
2013-04-29 21:16:00,60.0,53.5,29.71,NE,55,0.0,1.0,79,0.00,,,0.04,0,Wunderground v.1.15,2013-04-30 02:16:00,
2013-04-29 21:18:00,59.9,53.4,29.70,NE,55,0.0,1.0,79,0.00,,,0.04,0,Wunderground v.1.15,2013-04-30 02:18:00,
2013-04-29 21:20:00,59.9,53.4,29.71,NE,55,0.0,0.0,79,0.00,,,0.04,0,Wunderground v.1.15,2013-04-30 02:20:00,
2013-04-29 21:21:00,59.8,53.3,29.70,NE,55,0.0,0.0,79,0.00,,,0.04,0,Wunderground v.1.15,2013-04-30 02:21:00,
2013-04-29 21:23:00,59.6,53.4,29.71,NE,55,0.0,0.0,80,0.00,,,0.04,0,Wunderground v.1.15,2013-04-30 02:23:00,
2013-04-29 21:26:00,59.4,53.2,29.71,NE,55,0.0,0.0,80,0.00,,,0.04,0,Wunderground v.1.15,2013-04-30 02:26:00,
2013-04-29 21:28:00,59.3,53.1,29.71,NE,55,0.0,0.0,80,0.00,,,0.04,0,Wunderground v.1.15,2013-04-30 02:28:00,
2013-04-29 21:30:00,59.3,53.1,29.71,NE,55,0.0,0.0,80,0.00,,,0.04,0,Wunderground v.1.15,2013-04-30 02:30:00,
2013-04-29 21:31:00,59.2,53.0,29.71,NE,55,0.0,0.0,80,0.00,,,0.04,0,Wunderground v.1.15,2013-04-30 02:31:00,
2013-04-29 21:32:00,59.3,53.5,29.71,NE,55,0.0,0.0,81,0.00,,,0.04,0,Wunderground v.1.15,2013-04-30 02:32:00,
2013-04-29 21:34:00,59.3,53.1,29.71,NE,55,0.0,0.0,80,0.00,,,0.04,0,Wunderground v.1.15,2013-04-30 02:34:00,
2013-04-29 21:38:00,59.0,53.2,29.71,NE,55,0.0,0.0,81,0.00,,,0.04,0,Wunderground v.1.15,2013-04-30 02:38:00,
2013-04-29 21:39:00,58.9,53.1,29.71,NE,55,0.0,0.0,81,0.00,,,0.04,0,Wunderground v.1.15,2013-04-30 02:39:00,
2013-04-29 21:40:00,58.9,53.1,29.71,NE,55,0.0,0.0,81,0.00,,,0.04,0,Wunderground v.1.15,2013-04-30 02:40:00,
2013-04-29 21:41:00,58.7,52.9,29.71,NE,55,0.0,0.0,81,0.00,,,0.04,0,Wunderground v.1.15,2013-04-30 02:41:00,
2013-04-29 21:43:00,58.3,52.5,29.71,NE,55,0.0,0.0,81,0.00,,,0.04,0,Wunderground v.1.15,2013-04-30 02:43:00,
2013-04-29 21:45:00,58.2,52.7,29.70,NE,55,0.0,0.0,82,0.00,,,0.04,0,Wunderground v.1.15,2013-04-30 02:45:00,
2013-04-29 21:46:00,58.2,52.7,29.70,NE,55,0.0,0.0,82,0.00,,,0.04,0,Wunderground v.1.15,2013-04-30 02:46:00,
2013-04-29 21:50:00,57.8,52.7,29.70,NE,55,0.0,0.0,83,0.00,,,0.04,0,Wunderground v.1.15,2013-04-30 02:50:00,
2013-04-29 21:52:00,57.7,52.2,29.70,NE,55,0.0,0.0,82,0.00,,,0.04,0,Wunderground v.1.15,2013-04-30 02:52:00,
2013-04-29 21:53:00,57.6,52.5,29.71,NE,55,0.0,0.0,83,0.00,,,0.04,0,Wunderground v.1.15,2013-04-30 02:53:00,
2013-04-29 21:55:00,57.5,52.4,29.70,NE,55,0.0,0.0,83,0.00,,,0.04,0,Wunderground v.1.15,2013-04-30 02:55:00,
2013-04-29 21:57:00,57.3,52.2,29.70,NE,55,0.0,0.0,83,0.00,,,0.04,0,Wunderground v.1.15,2013-04-30 02:57:00,
2013-04-29 21:58:00,57.1,52.0,29.70,NE,55,0.0,0.0,83,0.00,,,0.04,0,Wunderground v.1.15,2013-04-30 02:58:00,
2013-04-29 21:59:00,57.0,51.9,29.70,NE,55,0.0,0.0,83,0.00,,,0.04,0,Wunderground v.1.15,2013-04-30 02:59:00,
2013-04-29 22:02:00,56.6,51.8,29.70,NE,55,0.0,1.0,84,0.00,,,0.04,0,Wunderground v.1.15,2013-04-30 03:02:00,
2013-04-29 22:04:00,56.5,52.0,29.70,NE,55,0.0,1.0,85,0.00,,,0.04,0,Wunderground v.1.15,2013-04-30 03:04:00,
2013-04-29 22:05:00,56.4,51.9,29.70,NE,55,0.0,1.0,85,0.00,,,0.04,0,Wunderground v.1.15,2013-04-30 03:05:00,
2013-04-29 22:08:00,56.3,51.8,29.70,NE,55,0.0,1.0,85,0.00,,,0.04,0,Wunderground v.1.15,2013-04-30 03:08:00,
2013-04-29 22:09:00,56.3,51.8,29.70,NE,55,0.0,1.0,85,0.00,,,0.04,0,Wunderground v.1.15,2013-04-30 03:09:00,
2013-04-29 22:10:00,56.3,52.2,29.70,NE,55,0.0,0.0,86,0.00,,,0.04,0,Wunderground v.1.15,2013-04-30 03:10:00,
2013-04-29 22:14:00,56.3,52.2,29.70,NE,55,0.0,0.0,86,0.00,,,0.04,0,Wunderground v.1.15,2013-04-30 03:14:00,
2013-04-29 22:15:00,56.2,52.1,29.70,NE,55,0.0,0.0,86,0.00,,,0.04,0,Wunderground v.1.15,2013-04-30 03:15:00,
2013-04-29 22:16:00,56.3,52.2,29.70,NE,55,0.0,0.0,86,0.00,,,0.04,0,Wunderground v.1.15,2013-04-30 03:16:00,
2013-04-29 22:17:00,56.3,52.2,29.70,NE,55,0.0,0.0,86,0.00,,,0.04,0,Wunderground v.1.15,2013-04-30 03:17:00,
2013-04-29 22:18:00,56.3,52.2,29.70,NE,55,0.0,0.0,86,0.00,,,0.04,0,Wunderground v.1.15,2013-04-30 03:18:00,
2013-04-29 22:23:00,56.0,51.9,29.70,NE,55,0.0,0.0,86,0.00,,,0.04,0,Wunderground v.1.15,2013-04-30 03:23:00,
2013-04-29 22:24:00,56.0,51.9,29.69,NE,55,0.0,0.0,86,0.00,,,0.04,0,Wunderground v.1.15,2013-04-30 03:24:00,
2013-04-29 22:25:00,55.9,51.8,29.69,NE,55,0.0,0.0,86,0.00,,,0.04,0,Wunderground v.1.15,2013-04-30 03:25:00,
2013-04-29 22:30:00,55.5,51.4,29.69,NE,55,0.0,0.0,86,0.00,,,0.04,0,Wunderground v.1.15,2013-04-30 03:30:00,
2013-04-29 22:31:00,55.5,51.7,29.69,NE,55,0.0,0.0,87,0.00,,,0.04,0,Wunderground v.1.15,2013-04-30 03:31:00,
2013-04-29 22:32:00,55.5,51.7,29.69,NE,55,0.0,0.0,87,0.00,,,0.04,0,Wunderground v.1.15,2013-04-30 03:32:00,
2013-04-29 22:37:00,55.3,51.5,29.69,NE,55,0.0,0.0,87,0.00,,,0.04,0,Wunderground v.1.15,2013-04-30 03:37:00,
2013-04-29 22:38:00,55.3,51.5,29.69,NE,55,0.0,0.0,87,0.00,,,0.04,0,Wunderground v.1.15,2013-04-30 03:38:00,
2013-04-29 22:40:00,55.3,51.8,29.69,NE,55,0.0,0.0,88,0.00,,,0.04,0,Wunderground v.1.15,2013-04-30 03:40:00,
2013-04-29 22:42:00,55.4,51.9,29.69,NE,55,0.0,0.0,88,0.00,,,0.04,0,Wunderground v.1.15,2013-04-30 03:42:00,
2013-04-29 22:45:00,55.5,52.0,29.69,NE,55,0.0,0.0,88,0.00,,,0.04,0,Wunderground v.1.15,2013-04-30 03:45:00,
2013-04-29 22:47:00,55.6,51.8,29.69,NE,55,0.0,0.0,87,0.00,,,0.04,0,Wunderground v.1.15,2013-04-30 03:47:00,
2013-04-29 22:48:00,55.6,51.8,29.69,NE,55,0.0,0.0,87,0.00,,,0.04,0,Wunderground v.1.15,2013-04-30 03:48:00,
2013-04-29 22:52:00,55.6,51.8,29.69,NE,55,0.0,0.0,87,0.00,,,0.04,0,Wunderground v.1.15,2013-04-30 03:52:00,
2013-04-29 22:53:00,55.6,51.8,29.69,NE,55,0.0,0.0,87,0.00,,,0.04,0,Wunderground v.1.15,2013-04-30 03:53:00,
2013-04-29 22:54:00,55.5,51.7,29.69,NE,55,0.0,0.0,87,0.00,,,0.04,0,Wunderground v.1.15,2013-04-30 03:54:00,
2013-04-29 22:55:00,55.5,51.7,29.69,NE,55,0.0,0.0,87,0.00,,,0.04,0,Wunderground v.1.15,2013-04-30 03:55:00,
2013-04-29 22:56:00,55.4,51.6,29.69,NE,55,0.0,0.0,87,0.00,,,0.04,0,Wunderground v.1.15,2013-04-30 03:56:00,
2013-04-29 22:58:00,55.3,51.5,29.69,NE,55,0.0,0.0,87,0.00,,,0.04,0,Wunderground v.1.15,2013-04-30 03:58:00,
2013-04-29 23:01:00,55.2,51.4,29.69,NE,55,0.0,0.0,87,0.00,,,0.04,0,Wunderground v.1.15,2013-04-30 04:01:00,
2013-04-29 23:02:00,55.2,51.4,29.69,NE,55,0.0,0.0,87,0.00,,,0.04,0,Wunderground v.1.15,2013-04-30 04:02:00,
2013-04-29 23:03:00,55.2,51.4,29.69,NE,55,0.0,0.0,87,0.00,,,0.04,0,Wunderground v.1.15,2013-04-30 04:03:00,
2013-04-29 23:04:00,55.1,51.3,29.69,NE,55,0.0,0.0,87,0.00,,,0.04,0,Wunderground v.1.15,2013-04-30 04:04:00,
2013-04-29 23:05:00,55.1,51.6,29.69,NE,55,0.0,0.0,88,0.00,,,0.04,0,Wunderground v.1.15,2013-04-30 04:05:00,
2013-04-29 23:09:00,55.1,51.6,29.69,NE,55,0.0,0.0,88,0.00,,,0.04,0,Wunderground v.1.15,2013-04-30 04:09:00,
2013-04-29 23:10:00,55.1,51.6,29.69,NE,55,0.0,0.0,88,0.00,,,0.04,0,Wunderground v.1.15,2013-04-30 04:10:00,
2013-04-29 23:11:00,55.1,51.3,29.69,NE,55,0.0,0.0,87,0.00,,,0.04,0,Wunderground v.1.15,2013-04-30 04:11:00,
2013-04-29 23:16:00,54.9,51.4,29.69,NE,55,0.0,0.0,88,0.00,,,0.04,0,Wunderground v.1.15,2013-04-30 04:16:00,
2013-04-29 23:17:00,54.8,51.3,29.69,NE,55,0.0,0.0,88,0.00,,,0.04,0,Wunderground v.1.15,2013-04-30 04:17:00,
2013-04-29 23:19:00,54.8,51.3,29.69,NE,55,0.0,0.0,88,0.00,,,0.04,0,Wunderground v.1.15,2013-04-30 04:19:00,
2013-04-29 23:21:00,54.7,51.2,29.69,NE,55,0.0,0.0,88,0.00,,,0.04,0,Wunderground v.1.15,2013-04-30 04:21:00,
2013-04-29 23:23:00,54.5,51.0,29.69,NE,55,0.0,0.0,88,0.00,,,0.04,0,Wunderground v.1.15,2013-04-30 04:23:00,
2013-04-29 23:24:00,54.5,51.0,29.69,NE,55,0.0,0.0,88,0.00,,,0.04,0,Wunderground v.1.15,2013-04-30 04:24:00,
2013-04-29 23:27:00,54.4,50.9,29.69,NE,55,0.0,0.0,88,0.00,,,0.04,0,Wunderground v.1.15,2013-04-30 04:27:00,
2013-04-29 23:29:00,54.4,51.2,29.69,NE,55,0.0,0.0,89,0.00,,,0.04,0,Wunderground v.1.15,2013-04-30 04:29:00,
2013-04-29 23:32:00,54.4,51.2,29.69,NE,55,0.0,0.0,89,0.00,,,0.04,0,Wunderground v.1.15,2013-04-30 04:32:00,
2013-04-29 23:34:00,54.3,51.1,29.69,NE,55,0.0,0.0,89,0.00,,,0.04,0,Wunderground v.1.15,2013-04-30 04:34:00,
2013-04-29 23:37:00,54.2,51.0,29.69,NE,55,0.0,0.0,89,0.00,,,0.04,0,Wunderground v.1.15,2013-04-30 04:37:00,
2013-04-29 23:38:00,54.1,50.9,29.68,NE,55,0.0,0.0,89,0.00,,,0.04,0,Wunderground v.1.15,2013-04-30 04:38:00,
2013-04-29 23:39:00,54.1,50.9,29.69,NE,55,0.0,0.0,89,0.00,,,0.04,0,Wunderground v.1.15,2013-04-30 04:39:00,
2013-04-29 23:42:00,54.0,50.8,29.68,NE,55,0.0,1.0,89,0.00,,,0.04,0,Wunderground v.1.15,2013-04-30 04:42:00,
2013-04-29 23:43:00,53.9,50.7,29.68,NE,55,0.0,1.0,89,0.00,,,0.04,0,Wunderground v.1.15,2013-04-30 04:43:00,
2013-04-29 23:44:00,53.9,50.7,29.68,NE,55,0.0,1.0,89,0.00,,,0.04,0,Wunderground v.1.15,2013-04-30 04:44:00,
2013-04-29 23:47:00,53.9,51.0,29.68,NE,55,0.0,1.0,90,0.00,,,0.04,0,Wunderground v.1.15,2013-04-30 04:47:00,
2013-04-29 23:49:00,53.9,51.0,29.68,NE,55,0.0,1.0,90,0.00,,,0.04,0,Wunderground v.1.15,2013-04-30 04:49:00,
2013-04-29 23:50:00,54.0,51.1,29.68,NE,55,0.0,0.0,90,0.00,,,0.04,0,Wunderground v.1.15,2013-04-30 04:50:00,
2013-04-29 23:54:00,54.1,51.2,29.68,NE,55,0.0,0.0,90,0.00,,,0.04,0,Wunderground v.1.15,2013-04-30 04:54:00,
2013-04-29 23:55:00,54.1,51.2,29.68,NE,55,0.0,0.0,90,0.00,,,0.04,0,Wunderground v.1.15,2013-04-30 04:55:00,
2013-04-29 23:56:00,54.1,51.2,29.68,NE,55,0.0,0.0,90,0.00,,,0.04,0,Wunderground v.1.15,2013-04-30 04:56:00,
2013-04-29 23:58:00,54.2,51.3,29.68,NE,55,0.0,0.0,90,0.00,,,0.04,0,Wunderground v.1.15,2013-04-30 04:58:00,
2013-04-29 23:59:00,54.2,51.3,29.68,NE,55,0.0,0.0,90,0.00,,,0.04,0,Wunderground v.1.15,2013-04-30 04:59:00,